Time,TemperatureF,DewpointF,PressureIn,WindDirection,WindDirectionDegrees,WindSpeedMPH,WindSpeedGustMPH,Humidity,HourlyPrecipIn,Conditions,Clouds,dailyrainin,SoftwareType,DateUTC
2013-01-22 00:00:00,66.7,64.3,30.06,WNW,291,0.0,0.0,92,0.00,,---,0.00,VWS V14.01,2013-01-22 05:00:00,
2013-01-22 00:01:00,66.7,64.3,30.06,WNW,291,0.0,0.0,92,0.00,,---,0.00,VWS V14.01,2013-01-22 05:01:00,
2013-01-22 00:05:00,66.7,64.3,30.06,WNW,291,0.0,0.0,92,0.00,,---,0.00,VWS V14.01,2013-01-22 05:05:00,
2013-01-22 00:06:00,66.7,64.3,30.06,WNW,291,0.0,0.0,92,0.00,,---,0.00,VWS V14.01,2013-01-22 05:06:00,
2013-01-22 00:07:00,66.7,64.3,30.06,WNW,291,0.0,0.0,92,0.00,,---,0.00,VWS V14.01,2013-01-22 05:07:00,
2013-01-22 00:10:00,66.7,64.3,30.06,WNW,291,0.0,0.0,92,0.00,,---,0.00,VWS V14.01,2013-01-22 05:10:00,
2013-01-22 00:11:00,66.7,64.3,30.06,WNW,291,0.0,0.0,92,0.00,,---,0.00,VWS V14.01,2013-01-22 05:11:00,
2013-01-22 00:12:00,66.7,64.3,30.06,WNW,291,0.0,0.0,92,0.00,,---,0.00,VWS V14.01,2013-01-22 05:12:00,
2013-01-22 00:15:00,66.7,64.3,30.06,WNW,291,0.0,0.0,92,0.00,,---,0.00,VWS V14.01,2013-01-22 05:15:00,
2013-01-22 00:16:00,66.7,64.3,30.06,WNW,291,0.0,0.0,92,0.00,,---,0.00,VWS V14.01,2013-01-22 05:16:00,
2013-01-22 00:17:00,66.7,64.3,30.06,WNW,291,0.0,0.0,92,0.00,,---,0.00,VWS V14.01,2013-01-22 05:17:00,
2013-01-22 00:21:00,66.7,64.3,30.09,WNW,291,0.0,0.0,92,0.00,,---,0.00,VWS V14.01,2013-01-22 05:21:00,
2013-01-22 00:22:00,66.6,64.2,30.09,WNW,291,0.0,0.0,92,0.00,,---,0.00,VWS V14.01,2013-01-22 05:22:00,
2013-01-22 00:26:00,66.6,64.2,30.09,WNW,291,0.0,0.0,92,0.00,,---,0.00,VWS V14.01,2013-01-22 05:26:00,
2013-01-22 00:27:00,66.6,64.2,30.09,WNW,291,0.0,0.0,92,0.00,,---,0.00,VWS V14.01,2013-01-22 05:27:00,
2013-01-22 00:31:00,66.6,64.2,30.09,WNW,291,0.0,0.0,92,0.00,,---,0.00,VWS V14.01,2013-01-22 05:31:00,
2013-01-22 00:32:00,66.6,64.2,30.09,WNW,291,0.0,0.0,92,0.00,,---,0.00,VWS V14.01,2013-01-22 05:32:00,
2013-01-22 00:36:00,66.6,64.2,30.06,WNW,291,0.0,0.0,92,0.00,,---,0.00,VWS V14.01,2013-01-22 05:36:00,
2013-01-22 00:37:00,66.6,64.2,30.06,WNW,291,0.0,0.0,92,0.00,,---,0.00,VWS V14.01,2013-01-22 05:37:00,
2013-01-22 00:41:00,66.6,64.2,30.06,WNW,291,0.0,0.0,92,0.00,,---,0.00,VWS V14.01,2013-01-22 05:41:00,
2013-01-22 00:42:00,66.6,64.2,30.06,WNW,291,0.0,0.0,92,0.00,,---,0.00,VWS V14.01,2013-01-22 05:42:00,
2013-01-22 00:46:00,66.6,64.5,30.06,WNW,291,0.0,0.0,93,0.00,,---,0.00,VWS V14.01,2013-01-22 05:46:00,
2013-01-22 00:48:00,66.6,64.5,30.06,WNW,291,0.0,0.0,93,0.00,,---,0.00,VWS V14.01,2013-01-22 05:48:00,
2013-01-22 00:51:00,66.6,64.5,30.06,WNW,291,0.0,0.0,93,0.00,,---,0.00,VWS V14.01,2013-01-22 05:51:00,
2013-01-22 00:53:00,66.6,64.5,30.06,WNW,291,0.0,0.0,93,0.00,,---,0.00,VWS V14.01,2013-01-22 05:53:00,
2013-01-22 00:56:00,66.4,64.3,30.06,WNW,291,0.0,0.0,93,0.00,,---,0.00,VWS V14.01,2013-01-22 05:56:00,
2013-01-22 00:57:00,66.4,64.3,30.06,WNW,291,0.0,0.0,93,0.00,,---,0.00,VWS V14.01,2013-01-22 05:57:00,
2013-01-22 00:58:00,66.4,64.3,30.06,WNW,291,0.0,0.0,93,0.00,,---,0.00,VWS V14.01,2013-01-22 05:58:00,
2013-01-22 01:01:00,66.4,64.3,30.06,WNW,291,0.0,0.0,93,0.00,,---,0.00,VWS V14.01,2013-01-22 06:01:00,
2013-01-22 01:02:00,66.4,64.3,30.06,WNW,291,0.0,0.0,93,0.00,,---,0.00,VWS V14.01,2013-01-22 06:02:00,
2013-01-22 01:03:00,66.4,64.3,30.06,WNW,291,0.0,0.0,93,0.00,,---,0.00,VWS V14.01,2013-01-22 06:03:00,
2013-01-22 01:06:00,66.4,64.3,30.06,WNW,291,0.0,0.0,93,0.00,,---,0.00,VWS V14.01,2013-01-22 06:06:00,
2013-01-22 01:07:00,66.4,64.3,30.06,WNW,291,0.0,0.0,93,0.00,,---,0.00,VWS V14.01,2013-01-22 06:07:00,
2013-01-22 01:08:00,66.4,64.3,30.06,WNW,291,0.0,0.0,93,0.00,,---,0.00,VWS V14.01,2013-01-22 06:08:00,
2013-01-22 01:11:00,66.4,64.3,30.06,WNW,291,0.0,0.0,93,0.00,,---,0.00,VWS V14.01,2013-01-22 06:11:00,
2013-01-22 01:12:00,66.2,64.1,30.06,WNW,291,0.0,0.0,93,0.00,,---,0.00,VWS V14.01,2013-01-22 06:12:00,
2013-01-22 01:13:00,66.2,64.1,30.06,WNW,291,0.0,0.0,93,0.00,,---,0.00,VWS V14.01,2013-01-22 06:13:00,
2013-01-22 01:16:00,66.2,64.1,30.06,WNW,291,0.0,0.0,93,0.00,,---,0.00,VWS V14.01,2013-01-22 06:16:00,
2013-01-22 01:17:00,66.2,64.1,30.06,WNW,291,0.0,0.0,93,0.00,,---,0.00,VWS V14.01,2013-01-22 06:17:00,
2013-01-22 01:18:00,66.2,64.1,30.06,WNW,291,0.0,0.0,93,0.00,,---,0.00,VWS V14.01,2013-01-22 06:18:00,
2013-01-22 01:21:00,66.2,64.1,30.06,WNW,291,0.0,0.0,93,0.00,,---,0.00,VWS V14.01,2013-01-22 06:21:00,
2013-01-22 01:22:00,66.2,64.1,30.06,WNW,291,0.0,0.0,93,0.00,,---,0.00,VWS V14.01,2013-01-22 06:22:00,
2013-01-22 01:23:00,66.2,64.1,30.06,WNW,291,0.0,0.0,93,0.00,,---,0.00,VWS V14.01,2013-01-22 06:23:00,
2013-01-22 01:26:00,66.2,64.1,30.06,WNW,291,0.0,0.0,93,0.00,,---,0.00,VWS V14.01,2013-01-22 06:26:00,
2013-01-22 01:27:00,66.2,64.1,30.06,WNW,291,0.0,0.0,93,0.00,,---,0.00,VWS V14.01,2013-01-22 06:27:00,
2013-01-22 01:28:00,66.2,64.1,30.06,WNW,291,0.0,0.0,93,0.00,,---,0.00,VWS V14.01,2013-01-22 06:28:00,
2013-01-22 01:31:00,65.8,63.8,30.06,WNW,291,0.0,0.0,93,0.00,,---,0.00,VWS V14.01,2013-01-22 06:31:00,
2013-01-22 01:32:00,65.8,63.8,30.06,WNW,291,0.0,0.0,93,0.00,,---,0.00,VWS V14.01,2013-01-22 06:32:00,
2013-01-22 01:34:00,65.8,63.8,30.06,WNW,291,0.0,0.0,93,0.00,,---,0.00,VWS V14.01,2013-01-22 06:34:00,
2013-01-22 01:37:00,65.8,63.8,30.06,WNW,291,0.0,0.0,93,0.00,,---,0.00,VWS V14.01,2013-01-22 06:37:00,
2013-01-22 01:39:00,65.8,64.1,30.06,WNW,291,0.0,0.0,94,0.00,,---,0.00,VWS V14.01,2013-01-22 06:39:00,
2013-01-22 01:42:00,65.8,63.8,30.06,WNW,291,0.0,0.0,93,0.00,,---,0.00,VWS V14.01,2013-01-22 06:42:00,
2013-01-22 01:44:00,65.8,63.8,30.06,WNW,291,0.0,0.0,93,0.00,,---,0.00,VWS V14.01,2013-01-22 06:44:00,
2013-01-22 01:47:00,65.8,63.8,30.06,WNW,291,0.0,0.0,93,0.00,,---,0.00,VWS V14.01,2013-01-22 06:47:00,
2013-01-22 01:49:00,65.8,63.8,30.06,WNW,291,0.0,0.0,93,0.00,,---,0.00,VWS V14.01,2013-01-22 06:49:00,
2013-01-22 01:52:00,65.8,63.8,30.06,WNW,291,0.0,0.0,93,0.00,,---,0.00,VWS V14.01,2013-01-22 06:52:00,
2013-01-22 01:54:00,65.8,63.8,30.06,WNW,291,0.0,0.0,93,0.00,,---,0.00,VWS V14.01,2013-01-22 06:54:00,
2013-01-22 01:57:00,65.7,63.9,30.06,WNW,291,0.0,0.0,94,0.00,,---,0.00,VWS V14.01,2013-01-22 06:57:00,
2013-01-22 01:59:00,65.7,63.9,30.06,WNW,291,0.0,0.0,94,0.00,,---,0.00,VWS V14.01,2013-01-22 06:59:00,
2013-01-22 02:02:00,65.7,63.9,30.06,WNW,291,0.0,0.0,94,0.00,,---,0.00,VWS V14.01,2013-01-22 07:02:00,
2013-01-22 02:04:00,65.7,63.9,30.06,WNW,291,0.0,0.0,94,0.00,,---,0.00,VWS V14.01,2013-01-22 07:04:00,
2013-01-22 02:07:00,65.7,63.9,30.06,WNW,291,0.0,0.0,94,0.00,,---,0.00,VWS V14.01,2013-01-22 07:07:00,
2013-01-22 02:08:00,65.7,63.9,30.06,WNW,291,0.0,0.0,94,0.00,,---,0.00,VWS V14.01,2013-01-22 07:08:00,
2013-01-22 02:10:00,65.7,63.9,30.06,WNW,291,0.0,0.0,94,0.00,,---,0.00,VWS V14.01,2013-01-22 07:10:00,
2013-01-22 02:12:00,65.7,63.9,30.06,WNW,291,0.0,0.0,94,0.00,,---,0.00,VWS V14.01,2013-01-22 07:12:00,
2013-01-22 02:13:00,65.7,63.9,30.06,WNW,291,0.0,0.0,94,0.00,,---,0.00,VWS V14.01,2013-01-22 07:13:00,
2013-01-22 02:15:00,65.7,63.9,30.06,WNW,291,0.0,0.0,94,0.00,,---,0.00,VWS V14.01,2013-01-22 07:15:00,
2013-01-22 02:17:00,65.5,63.7,30.06,WNW,291,0.0,0.0,94,0.00,,---,0.00,VWS V14.01,2013-01-22 07:17:00,
2013-01-22 02:18:00,65.5,63.7,30.06,WNW,291,0.0,0.0,94,0.00,,---,0.00,VWS V14.01,2013-01-22 07:18:00,
2013-01-22 02:20:00,65.5,63.7,30.06,WNW,291,0.0,0.0,94,0.00,,---,0.00,VWS V14.01,2013-01-22 07:20:00,
2013-01-22 02:22:00,65.5,63.7,30.06,WNW,291,0.0,0.0,94,0.00,,---,0.00,VWS V14.01,2013-01-22 07:22:00,
2013-01-22 02:23:00,65.5,63.7,30.06,WNW,291,0.0,0.0,94,0.00,,---,0.00,VWS V14.01,2013-01-22 07:23:00,
2013-01-22 02:25:00,65.5,63.7,30.06,WNW,291,0.0,0.0,94,0.00,,---,0.00,VWS V14.01,2013-01-22 07:25:00,
2013-01-22 02:27:00,65.5,63.7,30.06,WNW,291,0.0,0.0,94,0.00,,---,0.00,VWS V14.01,2013-01-22 07:27:00,
2013-01-22 02:28:00,65.5,63.7,30.06,WNW,291,0.0,0.0,94,0.00,,---,0.00,VWS V14.01,2013-01-22 07:28:00,
2013-01-22 02:30:00,65.5,63.7,30.06,WNW,291,0.0,0.0,94,0.00,,---,0.00,VWS V14.01,2013-01-22 07:30:00,
2013-01-22 02:32:00,65.5,63.7,30.06,WNW,291,0.0,0.0,94,0.00,,---,0.00,VWS V14.01,2013-01-22 07:32:00,
2013-01-22 02:33:00,65.5,63.7,30.06,WNW,291,0.0,0.0,94,0.00,,---,0.00,VWS V14.01,2013-01-22 07:33:00,
2013-01-22 02:36:00,65.5,63.7,30.06,WNW,291,0.0,0.0,94,0.00,,---,0.00,VWS V14.01,2013-01-22 07:36:00,
2013-01-22 02:37:00,65.3,63.5,30.06,WNW,291,0.0,0.0,94,0.00,,---,0.00,VWS V14.01,2013-01-22 07:37:00,
2013-01-22 02:38:00,65.3,63.5,30.06,WNW,291,0.0,0.0,94,0.00,,---,0.00,VWS V14.01,2013-01-22 07:38:00,
2013-01-22 02:41:00,65.3,63.5,30.06,WNW,291,0.0,0.0,94,0.00,,---,0.00,VWS V14.01,2013-01-22 07:41:00,
2013-01-22 02:42:00,65.3,63.5,30.06,WNW,291,0.0,0.0,94,0.00,,---,0.00,VWS V14.01,2013-01-22 07:42:00,
2013-01-22 02:43:00,65.3,63.5,30.06,WNW,291,0.0,0.0,94,0.00,,---,0.00,VWS V14.01,2013-01-22 07:43:00,
2013-01-22 02:46:00,65.3,63.5,30.06,WNW,291,0.0,0.0,94,0.00,,---,0.00,VWS V14.01,2013-01-22 07:46:00,
2013-01-22 02:48:00,65.3,63.5,30.06,WNW,291,0.0,0.0,94,0.00,,---,0.00,VWS V14.01,2013-01-22 07:48:00,
2013-01-22 02:51:00,65.3,63.5,30.06,WNW,291,0.0,0.0,94,0.00,,---,0.00,VWS V14.01,2013-01-22 07:51:00,
2013-01-22 02:53:00,65.1,63.3,30.06,WNW,291,0.0,0.0,94,0.00,,---,0.00,VWS V14.01,2013-01-22 07:53:00,
2013-01-22 02:56:00,65.1,63.3,30.06,WNW,291,0.0,0.0,94,0.00,,---,0.00,VWS V14.01,2013-01-22 07:56:00,
2013-01-22 02:58:00,65.1,63.3,30.06,WNW,291,0.0,0.0,94,0.00,,---,0.00,VWS V14.01,2013-01-22 07:58:00,
2013-01-22 03:01:00,65.1,63.3,30.06,WNW,291,0.0,0.0,94,0.00,,---,0.00,VWS V14.01,2013-01-22 08:01:00,
2013-01-22 03:03:00,65.1,63.3,30.06,WNW,291,0.0,0.0,94,0.00,,---,0.00,VWS V14.01,2013-01-22 08:03:00,
2013-01-22 03:07:00,65.1,63.3,30.06,WNW,291,0.0,0.0,94,0.00,,---,0.00,VWS V14.01,2013-01-22 08:07:00,
2013-01-22 03:08:00,65.1,63.3,30.06,WNW,291,0.0,0.0,94,0.00,,---,0.00,VWS V14.01,2013-01-22 08:08:00,
2013-01-22 03:12:00,65.1,63.3,30.06,WNW,291,0.0,0.0,94,0.00,,---,0.00,VWS V14.01,2013-01-22 08:12:00,
2013-01-22 03:13:00,65.1,63.3,30.06,WNW,291,0.0,0.0,94,0.00,,---,0.00,VWS V14.01,2013-01-22 08:13:00,
2013-01-22 03:14:00,65.1,63.3,30.06,WNW,291,0.0,0.0,94,0.00,,---,0.00,VWS V14.01,2013-01-22 08:14:00,
2013-01-22 03:17:00,65.1,63.3,30.06,WNW,291,0.0,0.0,94,0.00,,---,0.00,VWS V14.01,2013-01-22 08:17:00,
2013-01-22 03:19:00,65.1,63.3,30.06,WNW,291,0.0,0.0,94,0.00,,---,0.00,VWS V14.01,2013-01-22 08:19:00,
2013-01-22 03:22:00,65.1,63.3,30.06,WNW,291,0.0,0.0,94,0.00,,---,0.00,VWS V14.01,2013-01-22 08:22:00,
2013-01-22 03:24:00,65.1,63.3,30.06,WNW,291,0.0,0.0,94,0.00,,---,0.00,VWS V14.01,2013-01-22 08:24:00,
2013-01-22 03:27:00,65.1,63.3,30.06,WNW,291,0.0,0.0,94,0.00,,---,0.00,VWS V14.01,2013-01-22 08:27:00,
2013-01-22 03:29:00,65.1,63.0,30.06,WNW,291,0.0,0.0,93,0.00,,---,0.00,VWS V14.01,2013-01-22 08:29:00,
2013-01-22 03:32:00,65.1,63.0,30.06,WNW,291,0.0,0.0,93,0.00,,---,0.00,VWS V14.01,2013-01-22 08:32:00,
2013-01-22 03:34:00,65.1,63.0,30.06,WNW,291,0.0,0.0,93,0.00,,---,0.00,VWS V14.01,2013-01-22 08:34:00,
2013-01-22 03:37:00,64.9,62.9,30.06,WNW,291,0.0,0.0,93,0.00,,---,0.00,VWS V14.01,2013-01-22 08:37:00,
2013-01-22 03:39:00,64.9,62.9,30.06,WNW,291,0.0,0.0,93,0.00,,---,0.00,VWS V14.01,2013-01-22 08:39:00,
2013-01-22 03:44:00,64.9,62.9,30.06,WNW,291,0.0,0.0,93,0.00,,---,0.00,VWS V14.01,2013-01-22 08:44:00,
2013-01-22 03:49:00,64.9,62.9,30.06,WNW,291,0.0,0.0,93,0.00,,---,0.00,VWS V14.01,2013-01-22 08:49:00,
2013-01-22 03:50:00,64.9,62.9,30.06,WNW,291,0.0,0.0,93,0.00,,---,0.00,VWS V14.01,2013-01-22 08:50:00,
2013-01-22 03:54:00,64.9,62.9,30.06,WNW,291,0.0,0.0,93,0.00,,---,0.00,VWS V14.01,2013-01-22 08:54:00,
2013-01-22 03:55:00,64.8,62.7,30.06,WNW,291,0.0,0.0,93,0.00,,---,0.00,VWS V14.01,2013-01-22 08:55:00,
2013-01-22 03:59:00,64.8,62.7,30.06,WNW,291,0.0,0.0,93,0.00,,---,0.00,VWS V14.01,2013-01-22 08:59:00,
2013-01-22 04:00:00,64.8,62.7,30.06,WNW,291,0.0,0.0,93,0.00,,---,0.00,VWS V14.01,2013-01-22 09:00:00,
2013-01-22 04:04:00,64.8,62.4,30.06,WNW,291,0.0,0.0,92,0.00,,---,0.00,VWS V14.01,2013-01-22 09:04:00,
2013-01-22 04:05:00,64.8,62.4,30.06,WNW,291,0.0,0.0,92,0.00,,---,0.00,VWS V14.01,2013-01-22 09:05:00,
2013-01-22 04:09:00,64.8,62.4,30.06,WNW,291,0.0,0.0,92,0.00,,---,0.00,VWS V14.01,2013-01-22 09:09:00,
2013-01-22 04:10:00,64.8,62.4,30.06,WNW,291,0.0,0.0,92,0.00,,---,0.00,VWS V14.01,2013-01-22 09:10:00,
2013-01-22 04:15:00,64.8,62.4,30.06,WNW,291,0.0,0.0,92,0.00,,---,0.00,VWS V14.01,2013-01-22 09:15:00,
2013-01-22 04:20:00,64.8,62.4,30.06,WNW,291,0.0,0.0,92,0.00,,---,0.00,VWS V14.01,2013-01-22 09:20:00,
2013-01-22 04:25:00,64.6,62.2,30.06,WNW,291,0.0,0.0,92,0.00,,---,0.00,VWS V14.01,2013-01-22 09:25:00,
2013-01-22 04:26:00,64.6,62.2,30.06,WNW,291,0.0,0.0,92,0.00,,---,0.00,VWS V14.01,2013-01-22 09:26:00,
2013-01-22 04:30:00,64.6,62.2,30.06,WNW,291,0.0,0.0,92,0.00,,---,0.00,VWS V14.01,2013-01-22 09:30:00,
2013-01-22 04:31:00,64.6,62.2,30.06,WNW,291,0.0,0.0,92,0.00,,---,0.00,VWS V14.01,2013-01-22 09:31:00,
2013-01-22 04:35:00,64.4,61.7,30.06,WNW,291,0.0,0.0,91,0.00,,---,0.00,VWS V14.01,2013-01-22 09:35:00,
2013-01-22 04:36:00,64.4,61.7,30.06,WNW,291,0.0,0.0,91,0.00,,---,0.00,VWS V14.01,2013-01-22 09:36:00,
2013-01-22 04:40:00,64.4,61.7,30.06,WNW,291,0.0,0.0,91,0.00,,---,0.00,VWS V14.01,2013-01-22 09:40:00,
2013-01-22 04:41:00,64.4,61.7,30.06,WNW,291,0.0,0.0,91,0.00,,---,0.00,VWS V14.01,2013-01-22 09:41:00,
2013-01-22 04:45:00,64.4,61.7,30.06,WNW,291,0.0,0.0,91,0.00,,---,0.00,VWS V14.01,2013-01-22 09:45:00,
2013-01-22 04:46:00,64.4,61.7,30.06,WNW,291,0.0,0.0,91,0.00,,---,0.00,VWS V14.01,2013-01-22 09:46:00,
2013-01-22 04:50:00,64.4,61.7,30.06,WNW,291,0.0,0.0,91,0.00,,---,0.00,VWS V14.01,2013-01-22 09:50:00,
2013-01-22 04:51:00,64.4,61.7,30.06,WNW,291,0.0,0.0,91,0.00,,---,0.00,VWS V14.01,2013-01-22 09:51:00,
2013-01-22 04:55:00,64.4,61.7,30.06,WNW,291,0.0,0.0,91,0.00,,---,0.00,VWS V14.01,2013-01-22 09:55:00,
2013-01-22 04:56:00,64.4,61.7,30.06,WNW,291,0.0,0.0,91,0.00,,---,0.00,VWS V14.01,2013-01-22 09:56:00,
2013-01-22 05:01:00,64.2,61.5,30.06,WNW,291,0.0,0.0,91,0.00,,---,0.00,VWS V14.01,2013-01-22 10:01:00,
2013-01-22 05:06:00,64.2,61.5,30.06,WNW,291,0.0,0.0,91,0.00,,---,0.00,VWS V14.01,2013-01-22 10:06:00,
2013-01-22 05:07:00,64.2,61.5,30.06,WNW,291,0.0,0.0,91,0.00,,---,0.00,VWS V14.01,2013-01-22 10:07:00,
2013-01-22 05:11:00,64.2,61.2,30.06,WNW,291,0.0,0.0,90,0.00,,---,0.00,VWS V14.01,2013-01-22 10:11:00,
2013-01-22 05:12:00,64.2,61.2,30.06,WNW,291,0.0,0.0,90,0.00,,---,0.00,VWS V14.01,2013-01-22 10:12:00,
2013-01-22 05:16:00,64.2,61.2,30.06,WNW,291,0.0,0.0,90,0.00,,---,0.00,VWS V14.01,2013-01-22 10:16:00,
2013-01-22 05:17:00,64.2,61.2,30.06,WNW,291,0.0,0.0,90,0.00,,---,0.00,VWS V14.01,2013-01-22 10:17:00,
2013-01-22 05:21:00,64.2,60.9,30.06,WNW,291,0.0,0.0,89,0.00,,---,0.00,VWS V14.01,2013-01-22 10:21:00,
2013-01-22 05:22:00,64.2,60.9,30.06,WNW,291,0.0,0.0,89,0.00,,---,0.00,VWS V14.01,2013-01-22 10:22:00,
2013-01-22 05:26:00,64.2,60.9,30.06,WNW,291,0.0,0.0,89,0.00,,---,0.00,VWS V14.01,2013-01-22 10:26:00,
2013-01-22 05:27:00,64.2,60.9,30.06,WNW,291,0.0,0.0,89,0.00,,---,0.00,VWS V14.01,2013-01-22 10:27:00,
2013-01-22 05:32:00,64.2,60.9,30.06,WNW,291,0.0,0.0,89,0.00,,---,0.00,VWS V14.01,2013-01-22 10:32:00,
2013-01-22 05:37:00,64.2,60.9,30.09,WNW,291,0.0,0.0,89,0.00,,---,0.00,VWS V14.01,2013-01-22 10:37:00,
2013-01-22 05:42:00,64.2,60.9,30.09,WNW,291,0.0,0.0,89,0.00,,---,0.00,VWS V14.01,2013-01-22 10:42:00,
2013-01-22 05:47:00,64.2,60.9,30.09,WNW,291,0.0,0.0,89,0.00,,---,0.00,VWS V14.01,2013-01-22 10:47:00,
2013-01-22 05:52:00,64.2,60.9,30.09,WNW,291,0.0,0.0,89,0.00,,---,0.00,VWS V14.01,2013-01-22 10:52:00,
2013-01-22 05:53:00,64.2,60.9,30.09,WNW,291,0.0,0.0,89,0.00,,---,0.00,VWS V14.01,2013-01-22 10:53:00,
2013-01-22 05:57:00,64.2,60.9,30.09,WNW,291,0.0,0.0,89,0.00,,---,0.00,VWS V14.01,2013-01-22 10:57:00,
2013-01-22 05:58:00,64.2,60.9,30.09,WNW,291,0.0,0.0,89,0.00,,---,0.00,VWS V14.01,2013-01-22 10:58:00,
2013-01-22 06:02:00,64.2,60.9,30.09,WNW,291,0.0,0.0,89,0.00,,---,0.00,VWS V14.01,2013-01-22 11:02:00,
2013-01-22 06:03:00,64.0,60.7,30.09,WNW,291,0.0,0.0,89,0.00,,---,0.00,VWS V14.01,2013-01-22 11:03:00,
2013-01-22 06:07:00,64.0,60.7,30.09,WNW,291,0.0,0.0,89,0.00,,---,0.00,VWS V14.01,2013-01-22 11:07:00,
2013-01-22 06:08:00,64.0,60.7,30.09,WNW,291,0.0,0.0,89,0.00,,---,0.00,VWS V14.01,2013-01-22 11:08:00,
2013-01-22 06:12:00,64.0,60.7,30.09,WNW,291,0.0,0.0,89,0.00,,---,0.00,VWS V14.01,2013-01-22 11:12:00,
2013-01-22 06:13:00,64.0,60.7,30.09,WNW,291,0.0,0.0,89,0.00,,---,0.00,VWS V14.01,2013-01-22 11:13:00,
2013-01-22 06:17:00,64.0,60.7,30.09,WNW,291,0.0,0.0,89,0.00,,---,0.00,VWS V14.01,2013-01-22 11:17:00,
2013-01-22 06:18:00,64.0,60.7,30.09,WNW,291,0.0,0.0,89,0.00,,---,0.00,VWS V14.01,2013-01-22 11:18:00,
2013-01-22 06:22:00,63.9,60.6,30.09,WNW,291,0.0,0.0,89,0.00,,---,0.00,VWS V14.01,2013-01-22 11:22:00,
2013-01-22 06:23:00,63.9,60.6,30.09,WNW,291,0.0,0.0,89,0.00,,---,0.00,VWS V14.01,2013-01-22 11:23:00,
2013-01-22 06:28:00,63.9,60.6,30.09,WNW,291,0.0,0.0,89,0.00,,---,0.00,VWS V14.01,2013-01-22 11:28:00,
2013-01-22 06:29:00,63.9,60.6,30.09,WNW,291,0.0,0.0,89,0.00,,---,0.00,VWS V14.01,2013-01-22 11:29:00,
2013-01-22 06:33:00,63.9,60.6,30.09,WNW,291,0.0,0.0,89,0.00,,---,0.00,VWS V14.01,2013-01-22 11:33:00,
2013-01-22 06:34:00,63.9,60.6,30.09,WNW,291,0.0,0.0,89,0.00,,---,0.00,VWS V14.01,2013-01-22 11:34:00,
2013-01-22 06:38:00,63.7,60.4,30.09,WNW,291,0.0,0.0,89,0.00,,---,0.00,VWS V14.01,2013-01-22 11:38:00,
2013-01-22 06:39:00,63.7,60.4,30.09,WNW,291,0.0,0.0,89,0.00,,---,0.00,VWS V14.01,2013-01-22 11:39:00,
2013-01-22 06:43:00,63.5,59.9,30.09,NW,311,0.0,0.0,88,0.00,,---,0.00,VWS V14.01,2013-01-22 11:43:00,
2013-01-22 06:44:00,63.5,59.9,30.09,NW,311,0.0,0.0,88,0.00,,---,0.00,VWS V14.01,2013-01-22 11:44:00,
2013-01-22 06:48:00,63.5,59.9,30.09,NW,311,0.0,0.0,88,0.00,,---,0.00,VWS V14.01,2013-01-22 11:48:00,
2013-01-22 06:49:00,63.5,59.9,30.09,NW,311,0.0,0.0,88,0.00,,---,0.00,VWS V14.01,2013-01-22 11:49:00,
2013-01-22 06:53:00,63.5,59.9,30.09,NW,311,0.0,0.0,88,0.00,,---,0.00,VWS V14.01,2013-01-22 11:53:00,
2013-01-22 06:54:00,63.5,59.9,30.09,NW,311,0.0,0.0,88,0.00,,---,0.00,VWS V14.01,2013-01-22 11:54:00,
2013-01-22 06:58:00,63.3,59.7,30.09,NW,311,0.0,0.0,88,0.00,,---,0.00,VWS V14.01,2013-01-22 11:58:00,
2013-01-22 06:59:00,63.3,59.7,30.09,NW,311,0.0,0.0,88,0.00,,---,0.00,VWS V14.01,2013-01-22 11:59:00,
2013-01-22 07:03:00,63.3,59.7,30.09,NW,311,0.0,0.0,88,0.00,,---,0.00,VWS V14.01,2013-01-22 12:03:00,
2013-01-22 07:04:00,63.3,59.7,30.09,NW,311,0.0,0.0,88,0.00,,---,0.00,VWS V14.01,2013-01-22 12:04:00,
2013-01-22 07:05:00,63.3,59.7,30.09,NW,311,0.0,0.0,88,0.00,,---,0.00,VWS V14.01,2013-01-22 12:05:00,
2013-01-22 07:08:00,63.1,59.5,30.12,NW,311,0.0,0.0,88,0.00,,---,0.00,VWS V14.01,2013-01-22 12:08:00,
2013-01-22 07:09:00,63.1,59.5,30.12,NW,311,0.0,0.0,88,0.00,,---,0.00,VWS V14.01,2013-01-22 12:09:00,
2013-01-22 07:11:00,63.1,59.5,30.12,NW,311,0.0,0.0,88,0.00,,---,0.00,VWS V14.01,2013-01-22 12:11:00,
2013-01-22 07:14:00,63.1,59.5,30.12,NW,311,0.0,0.0,88,0.00,,---,0.00,VWS V14.01,2013-01-22 12:14:00,
2013-01-22 07:16:00,63.1,59.5,30.12,NW,311,0.0,0.0,88,0.00,,---,0.00,VWS V14.01,2013-01-22 12:16:00,
2013-01-22 07:19:00,63.1,59.5,30.12,WNW,297,0.0,0.0,88,0.00,,---,0.00,VWS V14.01,2013-01-22 12:19:00,
2013-01-22 07:21:00,63.1,59.5,30.12,WNW,297,0.0,0.0,88,0.00,,---,0.00,VWS V14.01,2013-01-22 12:21:00,
2013-01-22 07:24:00,63.1,59.5,30.12,WNW,297,0.0,0.0,88,0.00,,---,0.00,VWS V14.01,2013-01-22 12:24:00,
2013-01-22 07:27:00,63.1,59.5,30.12,WNW,297,0.0,0.0,88,0.00,,---,0.00,VWS V14.01,2013-01-22 12:27:00,
2013-01-22 07:29:00,63.1,59.5,30.12,WNW,297,2.2,2.2,88,0.00,,---,0.00,VWS V14.01,2013-01-22 12:29:00,
2013-01-22 07:32:00,63.1,59.5,30.12,WNW,297,2.2,2.2,88,0.00,,---,0.00,VWS V14.01,2013-01-22 12:32:00,
2013-01-22 07:34:00,63.1,59.5,30.12,WNW,297,2.2,2.2,88,0.00,,---,0.00,VWS V14.01,2013-01-22 12:34:00,
2013-01-22 07:37:00,63.1,59.5,30.12,WNW,297,2.2,2.2,88,0.00,,---,0.00,VWS V14.01,2013-01-22 12:37:00,
2013-01-22 07:39:00,63.1,59.5,30.12,WNW,297,2.2,2.2,88,0.00,,---,0.00,VWS V14.01,2013-01-22 12:39:00,
2013-01-22 07:42:00,63.1,59.5,30.12,WNW,297,2.2,2.2,88,0.00,,---,0.00,VWS V14.01,2013-01-22 12:42:00,
2013-01-22 07:44:00,63.1,59.5,30.12,WNW,297,2.2,2.2,88,0.00,,---,0.00,VWS V14.01,2013-01-22 12:44:00,
2013-01-22 07:48:00,63.1,59.5,30.12,WNW,297,2.2,2.2,88,0.00,,---,0.00,VWS V14.01,2013-01-22 12:48:00,
2013-01-22 07:49:00,63.1,59.5,30.12,WNW,297,2.2,2.2,88,0.00,,---,0.00,VWS V14.01,2013-01-22 12:49:00,
2013-01-22 07:50:00,63.1,59.5,30.12,WNW,297,2.2,2.2,88,0.00,,---,0.00,VWS V14.01,2013-01-22 12:50:00,
2013-01-22 07:53:00,63.1,59.5,30.12,WNW,297,2.2,2.2,88,0.00,,---,0.00,VWS V14.01,2013-01-22 12:53:00,
2013-01-22 07:55:00,63.1,59.5,30.12,WNW,297,2.2,2.2,88,0.00,,---,0.00,VWS V14.01,2013-01-22 12:55:00,
2013-01-22 07:58:00,63.1,59.5,30.12,WNW,297,2.2,2.2,88,0.00,,---,0.00,VWS V14.01,2013-01-22 12:58:00,
2013-01-22 08:00:00,63.1,59.5,30.12,WNW,297,2.2,2.2,88,0.00,,---,0.00,VWS V14.01,2013-01-22 13:00:00,
2013-01-22 08:04:00,63.3,59.7,30.15,WNW,297,2.2,2.2,88,0.00,,---,0.00,VWS V14.01,2013-01-22 13:04:00,
2013-01-22 08:05:00,63.3,59.7,30.15,WNW,297,2.2,2.2,88,0.00,,---,0.00,VWS V14.01,2013-01-22 13:05:00,
2013-01-22 08:09:00,63.3,59.7,30.15,WNW,297,2.2,2.2,88,0.00,,---,0.00,VWS V14.01,2013-01-22 13:09:00,
2013-01-22 08:10:00,63.3,59.7,30.15,WNW,297,2.2,2.2,88,0.00,,---,0.00,VWS V14.01,2013-01-22 13:10:00,
2013-01-22 08:15:00,63.5,59.9,30.15,WNW,297,2.2,2.2,88,0.00,,---,0.00,VWS V14.01,2013-01-22 13:15:00,
2013-01-22 08:19:00,63.9,60.6,30.15,NNW,344,2.7,2.7,89,0.00,,---,0.00,VWS V14.01,2013-01-22 13:19:00,
2013-01-22 08:20:00,63.9,60.6,30.15,NNW,344,2.7,2.7,89,0.00,,---,0.00,VWS V14.01,2013-01-22 13:20:00,
2013-01-22 08:21:00,63.9,60.6,30.15,NNW,344,2.7,2.7,89,0.00,,---,0.00,VWS V14.01,2013-01-22 13:21:00,
2013-01-22 08:25:00,63.9,60.6,30.15,NNW,344,2.7,2.7,89,0.00,,---,0.00,VWS V14.01,2013-01-22 13:25:00,
2013-01-22 08:26:00,63.9,60.6,30.15,NNW,344,2.7,2.7,89,0.00,,---,0.00,VWS V14.01,2013-01-22 13:26:00,
2013-01-22 08:30:00,63.9,60.6,30.15,NNW,344,2.7,2.7,89,0.00,,---,0.00,VWS V14.01,2013-01-22 13:30:00,
2013-01-22 08:31:00,63.9,60.6,30.15,NNW,344,2.7,2.7,89,0.00,,---,0.00,VWS V14.01,2013-01-22 13:31:00,
2013-01-22 08:35:00,63.9,60.6,30.15,NNW,344,2.7,2.7,89,0.00,,---,0.00,VWS V14.01,2013-01-22 13:35:00,
2013-01-22 08:36:00,63.9,60.6,30.15,NNW,344,2.7,2.7,89,0.00,,---,0.00,VWS V14.01,2013-01-22 13:36:00,
2013-01-22 08:40:00,64.4,60.8,30.15,NNW,344,2.7,2.7,88,0.00,,---,0.00,VWS V14.01,2013-01-22 13:40:00,
2013-01-22 08:41:00,64.4,60.8,30.15,NNW,344,2.7,2.7,88,0.00,,---,0.00,VWS V14.01,2013-01-22 13:41:00,
2013-01-22 08:42:00,64.4,60.8,30.15,NNW,344,2.7,2.7,88,0.00,,---,0.00,VWS V14.01,2013-01-22 13:42:00,
2013-01-22 08:45:00,64.4,60.1,30.15,NNW,344,2.7,2.7,86,0.00,,---,0.00,VWS V14.01,2013-01-22 13:45:00,
2013-01-22 08:46:00,64.4,60.1,30.15,NNW,344,2.7,2.7,86,0.00,,---,0.00,VWS V14.01,2013-01-22 13:46:00,
2013-01-22 08:47:00,64.4,60.1,30.15,NNW,344,2.7,2.7,86,0.00,,---,0.00,VWS V14.01,2013-01-22 13:47:00,
2013-01-22 08:50:00,64.6,60.0,30.15,NNW,344,2.7,2.7,85,0.00,,---,0.00,VWS V14.01,2013-01-22 13:50:00,
2013-01-22 08:51:00,64.6,60.0,30.15,NNW,344,2.7,2.7,85,0.00,,---,0.00,VWS V14.01,2013-01-22 13:51:00,
2013-01-22 08:52:00,64.6,60.0,30.15,NNW,344,2.7,2.7,85,0.00,,---,0.00,VWS V14.01,2013-01-22 13:52:00,
2013-01-22 08:55:00,64.6,60.0,30.15,NNW,344,2.7,2.7,85,0.00,,---,0.00,VWS V14.01,2013-01-22 13:55:00,
2013-01-22 08:56:00,64.8,59.5,30.15,NNW,344,2.7,2.7,83,0.00,,---,0.00,VWS V14.01,2013-01-22 13:56:00,
2013-01-22 08:57:00,64.8,59.5,30.15,NNW,344,2.7,2.7,83,0.00,,---,0.00,VWS V14.01,2013-01-22 13:57:00,
2013-01-22 08:58:00,64.8,59.5,30.15,NNW,344,2.7,2.7,83,0.00,,---,0.00,VWS V14.01,2013-01-22 13:58:00,
2013-01-22 09:00:00,64.8,59.5,30.15,NNW,344,2.7,2.7,83,0.00,,---,0.00,VWS V14.01,2013-01-22 14:00:00,
2013-01-22 09:02:00,64.8,59.5,30.15,NNW,344,2.7,2.7,83,0.00,,---,0.00,VWS V14.01,2013-01-22 14:02:00,
2013-01-22 09:03:00,64.8,59.5,30.15,NNW,344,2.7,2.7,83,0.00,,---,0.00,VWS V14.01,2013-01-22 14:03:00,
2013-01-22 09:05:00,65.3,59.7,30.15,NNW,344,2.7,2.7,82,0.00,,---,0.00,VWS V14.01,2013-01-22 14:05:00,
2013-01-22 09:07:00,65.5,59.8,30.15,NNW,344,2.7,2.7,82,0.00,,---,0.00,VWS V14.01,2013-01-22 14:07:00,
2013-01-22 09:08:00,65.5,59.8,30.15,NNW,344,2.7,2.7,82,0.00,,---,0.00,VWS V14.01,2013-01-22 14:08:00,
2013-01-22 09:10:00,65.5,59.8,30.15,NNW,344,2.7,2.7,82,0.00,,---,0.00,VWS V14.01,2013-01-22 14:10:00,
2013-01-22 09:12:00,65.5,59.8,30.15,NNW,328,5.4,5.4,82,0.00,,---,0.00,VWS V14.01,2013-01-22 14:12:00,
2013-01-22 09:13:00,65.5,59.8,30.15,NW,325,3.6,5.4,82,0.00,,---,0.00,VWS V14.01,2013-01-22 14:13:00,
2013-01-22 09:15:00,65.8,59.2,30.15,NW,325,3.6,3.6,79,0.00,,---,0.00,VWS V14.01,2013-01-22 14:15:00,
2013-01-22 09:17:00,65.8,59.2,30.15,NNW,332,4.9,4.9,79,0.00,,---,0.00,VWS V14.01,2013-01-22 14:17:00,
2013-01-22 09:18:00,65.8,59.2,30.15,NNW,332,4.9,4.9,79,0.00,,---,0.00,VWS V14.01,2013-01-22 14:18:00,
2013-01-22 09:20:00,65.8,59.2,30.15,NNW,332,4.9,4.9,79,0.00,,---,0.00,VWS V14.01,2013-01-22 14:20:00,
2013-01-22 09:22:00,65.8,59.2,30.15,NNW,328,8.1,8.1,79,0.00,,---,0.00,VWS V14.01,2013-01-22 14:22:00,
2013-01-22 09:23:00,66.2,58.8,30.15,NNW,328,8.1,8.1,77,0.00,,---,0.00,VWS V14.01,2013-01-22 14:23:00,
2013-01-22 09:25:00,66.2,58.8,30.15,NNW,330,6.3,6.3,77,0.00,,---,0.00,VWS V14.01,2013-01-22 14:25:00,
2013-01-22 09:27:00,66.2,58.8,30.15,NNW,330,6.3,6.3,77,0.00,,---,0.00,VWS V14.01,2013-01-22 14:27:00,
2013-01-22 09:28:00,66.2,58.8,30.15,NNW,330,6.3,6.3,77,0.00,,---,0.00,VWS V14.01,2013-01-22 14:28:00,
2013-01-22 09:30:00,66.2,58.8,30.15,NNW,330,6.3,6.3,77,0.00,,---,0.00,VWS V14.01,2013-01-22 14:30:00,
2013-01-22 09:33:00,66.7,58.9,30.15,NNW,333,6.3,6.3,76,0.00,,---,0.00,VWS V14.01,2013-01-22 14:33:00,
2013-01-22 09:35:00,66.7,58.9,30.15,NW,322,6.3,6.3,76,0.00,,---,0.00,VWS V14.01,2013-01-22 14:35:00,
2013-01-22 09:38:00,66.7,58.9,30.15,NW,322,6.3,6.3,76,0.00,,---,0.00,VWS V14.01,2013-01-22 14:38:00,
2013-01-22 09:41:00,66.7,58.9,30.15,NNW,328,4.9,6.3,76,0.00,,---,0.00,VWS V14.01,2013-01-22 14:41:00,
2013-01-22 09:43:00,66.7,58.9,30.15,NNW,328,4.9,4.9,76,0.00,,---,0.00,VWS V14.01,2013-01-22 14:43:00,
2013-01-22 09:46:00,66.7,58.9,30.15,North,357,3.1,3.1,76,0.00,,---,0.00,VWS V14.01,2013-01-22 14:46:00,
2013-01-22 09:48:00,66.7,58.9,30.15,North,357,3.1,3.1,76,0.00,,---,0.00,VWS V14.01,2013-01-22 14:48:00,
2013-01-22 09:51:00,66.7,58.9,30.18,North,353,5.8,5.8,76,0.00,,---,0.00,VWS V14.01,2013-01-22 14:51:00,
2013-01-22 09:53:00,66.7,58.9,30.18,North,353,5.8,5.8,76,0.00,,---,0.00,VWS V14.01,2013-01-22 14:53:00,
2013-01-22 09:56:00,66.7,58.9,30.18,North,353,5.8,5.8,76,0.00,,---,0.00,VWS V14.01,2013-01-22 14:56:00,
2013-01-22 09:58:00,66.7,58.9,30.18,North,0,7.6,7.6,76,0.00,,---,0.00,VWS V14.01,2013-01-22 14:58:00,
2013-01-22 10:01:00,66.7,58.9,30.18,NNW,344,4.0,4.0,76,0.00,,---,0.00,VWS V14.01,2013-01-22 15:01:00,
2013-01-22 10:03:00,66.7,58.9,30.18,NW,320,7.6,7.6,76,0.00,,---,0.00,VWS V14.01,2013-01-22 15:03:00,
2013-01-22 10:04:00,66.7,58.9,30.18,NW,320,7.6,7.6,76,0.00,,---,0.00,VWS V14.01,2013-01-22 15:04:00,
2013-01-22 10:06:00,66.7,58.9,30.18,NW,320,7.6,7.6,76,0.00,,---,0.00,VWS V14.01,2013-01-22 15:06:00,
2013-01-22 10:08:00,66.7,58.9,30.18,NNW,336,5.8,5.8,76,0.00,,---,0.00,VWS V14.01,2013-01-22 15:08:00,
2013-01-22 10:09:00,66.7,58.9,30.18,NNW,336,5.8,5.8,76,0.00,,---,0.00,VWS V14.01,2013-01-22 15:09:00,
2013-01-22 10:11:00,66.7,58.9,30.18,NNW,346,3.6,3.6,76,0.00,,---,0.00,VWS V14.01,2013-01-22 15:11:00,
2013-01-22 10:13:00,66.7,58.9,30.18,North,353,8.7,8.7,76,0.00,,---,0.00,VWS V14.01,2013-01-22 15:13:00,
2013-01-22 10:14:00,66.7,58.9,30.18,North,353,8.7,8.7,76,0.00,,---,0.00,VWS V14.01,2013-01-22 15:14:00,
2013-01-22 10:16:00,66.7,58.9,30.18,North,353,8.7,8.7,76,0.00,,---,0.00,VWS V14.01,2013-01-22 15:16:00,
2013-01-22 10:18:00,66.7,58.9,30.18,North,353,3.6,8.7,76,0.00,,---,0.00,VWS V14.01,2013-01-22 15:18:00,
2013-01-22 10:19:00,66.7,58.9,30.18,North,353,3.6,3.6,76,0.00,,---,0.00,VWS V14.01,2013-01-22 15:19:00,
2013-01-22 10:21:00,66.7,58.9,30.18,NW,320,6.3,6.3,76,0.00,,---,0.00,VWS V14.01,2013-01-22 15:21:00,
2013-01-22 10:24:00,66.7,58.9,30.18,NW,320,6.3,6.3,76,0.00,,---,0.00,VWS V14.01,2013-01-22 15:24:00,
2013-01-22 10:26:00,66.7,58.9,30.18,NW,320,6.3,6.3,76,0.00,,---,0.00,VWS V14.01,2013-01-22 15:26:00,
2013-01-22 10:29:00,66.7,58.9,30.18,North,353,5.8,5.8,76,0.00,,---,0.00,VWS V14.01,2013-01-22 15:29:00,
2013-01-22 10:31:00,66.7,58.9,30.18,North,353,5.8,5.8,76,0.00,,---,0.00,VWS V14.01,2013-01-22 15:31:00,
2013-01-22 10:34:00,66.7,58.9,30.18,North,353,5.8,5.8,76,0.00,,---,0.00,VWS V14.01,2013-01-22 15:34:00,
2013-01-22 10:35:00,66.7,58.9,30.18,North,353,5.8,5.8,76,0.00,,---,0.00,VWS V14.01,2013-01-22 15:35:00,
2013-01-22 10:36:00,66.7,58.9,30.18,North,353,5.8,5.8,76,0.00,,---,0.00,VWS V14.01,2013-01-22 15:36:00,
2013-01-22 10:39:00,66.7,58.9,30.18,NNW,342,3.6,3.6,76,0.00,,---,0.00,VWS V14.01,2013-01-22 15:39:00,
2013-01-22 10:40:00,66.7,58.9,30.18,NNW,342,3.6,3.6,76,0.00,,---,0.00,VWS V14.01,2013-01-22 15:40:00,
2013-01-22 10:41:00,66.7,58.9,30.18,North,353,5.8,5.8,76,0.00,,---,0.00,VWS V14.01,2013-01-22 15:41:00,
2013-01-22 10:44:00,66.7,58.9,30.18,North,353,5.8,5.8,76,0.00,,---,0.00,VWS V14.01,2013-01-22 15:44:00,
2013-01-22 10:45:00,66.7,58.9,30.18,North,353,5.8,5.8,76,0.00,,---,0.00,VWS V14.01,2013-01-22 15:45:00,
2013-01-22 10:47:00,66.7,58.9,30.18,North,353,5.8,5.8,76,0.00,,---,0.00,VWS V14.01,2013-01-22 15:47:00,
2013-01-22 10:49:00,66.7,58.9,30.18,North,353,5.8,5.8,76,0.00,,---,0.00,VWS V14.01,2013-01-22 15:49:00,
2013-01-22 10:50:00,66.7,58.9,30.18,North,353,5.8,5.8,76,0.00,,---,0.00,VWS V14.01,2013-01-22 15:50:00,
2013-01-22 10:52:00,66.7,58.9,30.18,NNW,341,5.8,5.8,76,0.00,,---,0.00,VWS V14.01,2013-01-22 15:52:00,
2013-01-22 10:54:00,66.7,58.9,30.18,NNW,341,5.8,5.8,76,0.00,,---,0.00,VWS V14.01,2013-01-22 15:54:00,
2013-01-22 10:55:00,66.7,58.9,30.18,NNW,341,5.8,5.8,76,0.00,,---,0.00,VWS V14.01,2013-01-22 15:55:00,
2013-01-22 10:57:00,66.7,58.9,30.18,WNW,294,4.0,5.8,76,0.00,,---,0.00,VWS V14.01,2013-01-22 15:57:00,
2013-01-22 10:59:00,66.7,58.9,30.18,WNW,294,4.0,4.0,76,0.00,,---,0.00,VWS V14.01,2013-01-22 15:59:00,
2013-01-22 11:00:00,66.7,58.9,30.18,WNW,294,4.0,4.0,76,0.00,,---,0.00,VWS V14.01,2013-01-22 16:00:00,
2013-01-22 11:03:00,66.7,58.9,30.18,NW,321,9.2,9.2,76,0.00,,---,0.00,VWS V14.01,2013-01-22 16:03:00,
2013-01-22 11:04:00,66.7,58.9,30.18,NW,321,9.2,9.2,76,0.00,,---,0.00,VWS V14.01,2013-01-22 16:04:00,
2013-01-22 11:05:00,66.7,58.9,30.18,NW,321,9.2,9.2,76,0.00,,---,0.00,VWS V14.01,2013-01-22 16:05:00,
2013-01-22 11:08:00,66.7,58.9,30.18,NNE,19,4.0,4.0,76,0.00,,---,0.00,VWS V14.01,2013-01-22 16:08:00,
2013-01-22 11:09:00,66.7,58.9,30.18,NNE,19,4.0,4.0,76,0.00,,---,0.00,VWS V14.01,2013-01-22 16:09:00,
2013-01-22 11:10:00,66.7,58.9,30.18,NNE,19,4.0,4.0,76,0.00,,---,0.00,VWS V14.01,2013-01-22 16:10:00,
2013-01-22 11:13:00,66.7,58.9,30.18,NNE,19,4.0,4.0,76,0.00,,---,0.00,VWS V14.01,2013-01-22 16:13:00,
2013-01-22 11:14:00,66.7,58.9,30.18,NNW,339,6.3,6.3,76,0.00,,---,0.00,VWS V14.01,2013-01-22 16:14:00,
2013-01-22 11:15:00,66.7,58.9,30.18,NW,320,7.2,7.2,76,0.00,,---,0.00,VWS V14.01,2013-01-22 16:15:00,
2013-01-22 11:18:00,66.7,58.9,30.18,West,280,3.6,3.6,76,0.00,,---,0.00,VWS V14.01,2013-01-22 16:18:00,
2013-01-22 11:19:00,66.7,58.9,30.18,West,280,3.6,3.6,76,0.00,,---,0.00,VWS V14.01,2013-01-22 16:19:00,
2013-01-22 11:20:00,66.7,58.9,30.18,West,280,3.6,3.6,76,0.00,,---,0.00,VWS V14.01,2013-01-22 16:20:00,
2013-01-22 11:23:00,66.7,58.9,30.18,West,280,3.6,3.6,76,0.00,,---,0.00,VWS V14.01,2013-01-22 16:23:00,
2013-01-22 11:24:00,66.7,58.9,30.18,NNW,328,12.3,12.3,76,0.00,,---,0.00,VWS V14.01,2013-01-22 16:24:00,
2013-01-22 11:25:00,66.7,58.9,30.18,NNW,328,12.3,12.3,76,0.00,,---,0.00,VWS V14.01,2013-01-22 16:25:00,
2013-01-22 11:28:00,66.7,58.9,30.18,NNW,343,4.0,4.0,76,0.00,,---,0.00,VWS V14.01,2013-01-22 16:28:00,
2013-01-22 11:29:00,66.7,58.9,30.18,NNW,343,4.0,4.0,76,0.00,,---,0.00,VWS V14.01,2013-01-22 16:29:00,
2013-01-22 11:30:00,66.7,58.9,30.18,NNW,343,4.0,4.0,76,0.00,,---,0.00,VWS V14.01,2013-01-22 16:30:00,
2013-01-22 11:33:00,66.7,58.9,30.18,NNW,341,6.3,6.3,76,0.00,,---,0.00,VWS V14.01,2013-01-22 16:33:00,
2013-01-22 11:35:00,66.7,58.9,30.18,NNW,341,6.3,6.3,76,0.00,,---,0.00,VWS V14.01,2013-01-22 16:35:00,
2013-01-22 11:38:00,72.0,58.2,30.18,WNW,298,6.3,6.3,62,0.00,,---,0.00,VWS V14.01,2013-01-22 16:38:00,
2013-01-22 11:40:00,72.0,58.2,30.18,WNW,298,6.3,6.3,62,0.00,,---,0.00,VWS V14.01,2013-01-22 16:40:00,
2013-01-22 11:43:00,72.1,58.0,30.18,NW,314,6.3,6.3,61,0.00,,---,0.00,VWS V14.01,2013-01-22 16:43:00,
2013-01-22 11:45:00,72.1,58.4,30.18,NW,304,5.4,5.4,62,0.00,,---,0.00,VWS V14.01,2013-01-22 16:45:00,
2013-01-22 11:48:00,72.3,58.1,30.18,NW,304,5.4,5.4,61,0.00,,---,0.00,VWS V14.01,2013-01-22 16:48:00,
2013-01-22 11:50:00,72.3,58.1,30.18,NW,304,5.4,5.4,61,0.00,,---,0.00,VWS V14.01,2013-01-22 16:50:00,
2013-01-22 11:51:00,72.3,58.1,30.18,NW,304,5.4,5.4,61,0.00,,---,0.00,VWS V14.01,2013-01-22 16:51:00,
2013-01-22 11:53:00,72.3,57.7,30.18,NW,304,5.4,5.4,60,0.00,,---,0.00,VWS V14.01,2013-01-22 16:53:00,
2013-01-22 11:55:00,72.3,58.1,30.18,NW,304,5.4,5.4,61,0.00,,---,0.00,VWS V14.01,2013-01-22 16:55:00,
2013-01-22 11:56:00,72.3,58.1,30.18,NW,304,5.4,5.4,61,0.00,,---,0.00,VWS V14.01,2013-01-22 16:56:00,
2013-01-22 11:59:00,72.7,58.0,30.18,NW,304,5.4,5.4,60,0.00,,---,0.00,VWS V14.01,2013-01-22 16:59:00,
2013-01-22 12:00:00,72.7,58.0,30.18,NW,304,5.4,5.4,60,0.00,,---,0.00,VWS V14.01,2013-01-22 17:00:00,
2013-01-22 12:01:00,72.7,58.0,30.18,NW,304,5.4,5.4,60,0.00,,---,0.00,VWS V14.01,2013-01-22 17:01:00,
2013-01-22 12:04:00,72.9,58.2,30.18,NW,304,5.4,5.4,60,0.00,,---,0.00,VWS V14.01,2013-01-22 17:04:00,
2013-01-22 12:05:00,72.9,58.6,30.18,NW,304,5.4,5.4,61,0.00,,---,0.00,VWS V14.01,2013-01-22 17:05:00,
2013-01-22 12:06:00,72.9,58.6,30.18,NW,304,5.4,5.4,61,0.00,,---,0.00,VWS V14.01,2013-01-22 17:06:00,
2013-01-22 12:07:00,72.9,58.2,30.18,NW,304,5.4,5.4,60,0.00,,---,0.00,VWS V14.01,2013-01-22 17:07:00,
2013-01-22 12:09:00,72.9,58.2,30.18,NW,304,5.4,5.4,60,0.00,,---,0.00,VWS V14.01,2013-01-22 17:09:00,
2013-01-22 12:10:00,72.9,58.2,30.18,NW,304,5.4,5.4,60,0.00,,---,0.00,VWS V14.01,2013-01-22 17:10:00,
2013-01-22 12:11:00,73.0,58.3,30.18,NW,304,5.4,5.4,60,0.00,,---,0.00,VWS V14.01,2013-01-22 17:11:00,
2013-01-22 12:12:00,73.0,58.3,30.18,NW,304,5.4,5.4,60,0.00,,---,0.00,VWS V14.01,2013-01-22 17:12:00,
2013-01-22 12:14:00,72.9,57.7,30.18,NW,304,5.4,5.4,59,0.00,,---,0.00,VWS V14.01,2013-01-22 17:14:00,
2013-01-22 12:15:00,72.9,58.2,30.18,NW,304,5.4,5.4,60,0.00,,---,0.00,VWS V14.01,2013-01-22 17:15:00,
2013-01-22 12:17:00,73.0,58.3,30.18,NW,304,5.4,5.4,60,0.00,,---,0.00,VWS V14.01,2013-01-22 17:17:00,
2013-01-22 12:19:00,73.0,58.3,30.18,NW,304,5.4,5.4,60,0.00,,---,0.00,VWS V14.01,2013-01-22 17:19:00,
2013-01-22 12:20:00,73.2,59.0,30.18,NW,304,5.4,5.4,61,0.00,,---,0.00,VWS V14.01,2013-01-22 17:20:00,
2013-01-22 12:22:00,73.2,59.0,30.18,NW,304,5.4,5.4,61,0.00,,---,0.00,VWS V14.01,2013-01-22 17:22:00,
2013-01-22 12:24:00,73.2,59.0,30.18,NW,304,5.4,5.4,61,0.00,,---,0.00,VWS V14.01,2013-01-22 17:24:00,
2013-01-22 12:26:00,73.2,58.0,30.18,NW,304,5.4,5.4,59,0.00,,---,0.00,VWS V14.01,2013-01-22 17:26:00,
2013-01-22 12:27:00,73.2,58.0,30.18,NW,304,5.4,5.4,59,0.00,,---,0.00,VWS V14.01,2013-01-22 17:27:00,
2013-01-22 12:29:00,73.2,57.6,30.18,NW,304,5.4,5.4,58,0.00,,---,0.00,VWS V14.01,2013-01-22 17:29:00,
2013-01-22 12:31:00,73.2,58.0,30.18,NW,304,5.4,5.4,59,0.00,,---,0.00,VWS V14.01,2013-01-22 17:31:00,
2013-01-22 12:32:00,73.2,58.0,30.18,NW,304,5.4,5.4,59,0.00,,---,0.00,VWS V14.01,2013-01-22 17:32:00,
2013-01-22 12:33:00,73.2,57.6,30.18,North,0,6.3,6.3,58,0.00,,---,0.00,VWS V14.01,2013-01-22 17:33:00,
2013-01-22 12:34:00,73.2,57.1,30.18,North,0,6.3,6.3,57,0.00,,---,0.00,VWS V14.01,2013-01-22 17:34:00,
2013-01-22 12:36:00,73.2,57.1,30.18,North,0,6.3,6.3,57,0.00,,---,0.00,VWS V14.01,2013-01-22 17:36:00,
2013-01-22 12:38:00,73.2,56.6,30.18,North,0,6.3,6.3,56,0.00,,---,0.00,VWS V14.01,2013-01-22 17:38:00,
2013-01-22 12:39:00,73.2,56.6,30.18,North,0,6.3,6.3,56,0.00,,---,0.00,VWS V14.01,2013-01-22 17:39:00,
2013-01-22 12:41:00,73.2,56.6,30.18,North,0,6.3,6.3,56,0.00,,---,0.00,VWS V14.01,2013-01-22 17:41:00,
2013-01-22 12:43:00,73.2,56.6,30.18,North,0,6.3,6.3,56,0.00,,---,0.00,VWS V14.01,2013-01-22 17:43:00,
2013-01-22 12:45:00,73.0,56.4,30.18,North,0,6.3,6.3,56,0.00,,---,0.00,VWS V14.01,2013-01-22 17:45:00,
2013-01-22 12:46:00,73.0,56.4,30.18,North,0,6.3,6.3,56,0.00,,---,0.00,VWS V14.01,2013-01-22 17:46:00,
2013-01-22 12:48:00,73.0,56.4,30.18,North,0,6.3,6.3,56,0.00,,---,0.00,VWS V14.01,2013-01-22 17:48:00,
2013-01-22 12:50:00,73.0,56.4,30.18,North,0,6.3,6.3,56,0.00,,---,0.00,VWS V14.01,2013-01-22 17:50:00,
2013-01-22 12:52:00,72.9,55.8,30.18,North,0,6.3,6.3,55,0.00,,---,0.00,VWS V14.01,2013-01-22 17:52:00,
2013-01-22 12:53:00,72.9,56.3,30.18,North,0,6.3,6.3,56,0.00,,---,0.00,VWS V14.01,2013-01-22 17:53:00,
2013-01-22 12:54:00,72.9,55.8,30.18,North,0,6.3,6.3,55,0.00,,---,0.00,VWS V14.01,2013-01-22 17:54:00,
2013-01-22 12:55:00,72.7,55.6,30.18,North,0,6.3,6.3,55,0.00,,---,0.00,VWS V14.01,2013-01-22 17:55:00,
2013-01-22 12:57:00,72.7,56.1,30.18,North,0,6.3,6.3,56,0.00,,---,0.00,VWS V14.01,2013-01-22 17:57:00,
2013-01-22 12:58:00,72.7,56.1,30.18,North,0,6.3,6.3,56,0.00,,---,0.00,VWS V14.01,2013-01-22 17:58:00,
2013-01-22 12:59:00,72.9,56.3,30.18,North,0,6.3,6.3,56,0.00,,---,0.00,VWS V14.01,2013-01-22 17:59:00,
2013-01-22 13:00:00,73.0,56.4,30.18,North,0,6.3,6.3,56,0.00,,---,0.00,VWS V14.01,2013-01-22 18:00:00,
2013-01-22 13:02:00,73.0,56.4,30.18,North,0,6.3,6.3,56,0.00,,---,0.00,VWS V14.01,2013-01-22 18:02:00,
2013-01-22 13:03:00,73.0,56.4,30.18,North,0,6.3,6.3,56,0.00,,---,0.00,VWS V14.01,2013-01-22 18:03:00,
2013-01-22 13:04:00,73.0,56.4,30.18,North,0,6.3,6.3,56,0.00,,---,0.00,VWS V14.01,2013-01-22 18:04:00,
2013-01-22 13:05:00,73.2,56.6,30.18,North,0,6.3,6.3,56,0.00,,---,0.00,VWS V14.01,2013-01-22 18:05:00,
2013-01-22 13:07:00,73.4,56.3,30.18,North,0,6.3,6.3,55,0.00,,---,0.00,VWS V14.01,2013-01-22 18:07:00,
2013-01-22 13:08:00,73.8,56.1,30.18,North,0,6.3,6.3,54,0.00,,---,0.00,VWS V14.01,2013-01-22 18:08:00,
2013-01-22 13:09:00,73.8,56.1,30.18,North,0,6.3,6.3,54,0.00,,---,0.00,VWS V14.01,2013-01-22 18:09:00,
2013-01-22 13:11:00,73.9,55.8,30.15,North,0,6.3,6.3,53,0.00,,---,0.00,VWS V14.01,2013-01-22 18:11:00,
2013-01-22 13:12:00,73.8,56.1,30.15,North,0,6.3,6.3,54,0.00,,---,0.00,VWS V14.01,2013-01-22 18:12:00,
2013-01-22 13:13:00,73.8,55.6,30.15,North,0,6.3,6.3,53,0.00,,---,0.00,VWS V14.01,2013-01-22 18:13:00,
2013-01-22 13:14:00,73.8,55.1,30.15,North,0,6.3,6.3,52,0.00,,---,0.00,VWS V14.01,2013-01-22 18:14:00,
2013-01-22 13:16:00,73.6,54.9,30.15,North,0,6.3,6.3,52,0.00,,---,0.00,VWS V14.01,2013-01-22 18:16:00,
2013-01-22 13:17:00,73.4,54.7,30.15,North,0,6.3,6.3,52,0.00,,---,0.00,VWS V14.01,2013-01-22 18:17:00,
2013-01-22 13:18:00,73.2,54.6,30.15,North,0,6.3,6.3,52,0.00,,---,0.00,VWS V14.01,2013-01-22 18:18:00,
2013-01-22 13:19:00,73.2,54.6,30.15,North,0,6.3,6.3,52,0.00,,---,0.00,VWS V14.01,2013-01-22 18:19:00,
2013-01-22 13:21:00,73.2,54.6,30.15,North,0,6.3,6.3,52,0.00,,---,0.00,VWS V14.01,2013-01-22 18:21:00,
2013-01-22 13:22:00,73.2,55.1,30.15,North,0,6.3,6.3,53,0.00,,---,0.00,VWS V14.01,2013-01-22 18:22:00,
2013-01-22 13:23:00,73.2,55.1,30.15,North,0,6.3,6.3,53,0.00,,---,0.00,VWS V14.01,2013-01-22 18:23:00,
2013-01-22 13:24:00,73.0,54.4,30.15,North,0,6.3,6.3,52,0.00,,---,0.00,VWS V14.01,2013-01-22 18:24:00,
2013-01-22 13:26:00,73.2,54.6,30.15,North,0,6.3,6.3,52,0.00,,---,0.00,VWS V14.01,2013-01-22 18:26:00,
2013-01-22 13:28:00,73.2,54.6,30.15,North,0,6.3,6.3,52,0.00,,---,0.00,VWS V14.01,2013-01-22 18:28:00,
2013-01-22 13:30:00,73.2,54.6,30.15,North,0,6.3,6.3,52,0.00,,---,0.00,VWS V14.01,2013-01-22 18:30:00,
2013-01-22 13:31:00,73.2,54.6,30.15,North,0,6.3,6.3,52,0.00,,---,0.00,VWS V14.01,2013-01-22 18:31:00,
2013-01-22 13:33:00,73.2,54.6,30.15,North,0,6.3,6.3,52,0.00,,---,0.00,VWS V14.01,2013-01-22 18:33:00,
2013-01-22 13:35:00,73.2,54.6,30.15,North,0,6.3,6.3,52,0.00,,---,0.00,VWS V14.01,2013-01-22 18:35:00,
2013-01-22 13:37:00,73.0,54.4,30.15,North,0,6.3,6.3,52,0.00,,---,0.00,VWS V14.01,2013-01-22 18:37:00,
2013-01-22 13:38:00,73.0,54.4,30.15,North,0,6.3,6.3,52,0.00,,---,0.00,VWS V14.01,2013-01-22 18:38:00,
2013-01-22 13:40:00,73.0,53.9,30.15,North,0,6.3,6.3,51,0.00,,---,0.00,VWS V14.01,2013-01-22 18:40:00,
2013-01-22 13:42:00,73.0,53.9,30.15,North,0,6.3,6.3,51,0.00,,---,0.00,VWS V14.01,2013-01-22 18:42:00,
2013-01-22 13:43:00,73.0,53.9,30.15,North,0,6.3,6.3,51,0.00,,---,0.00,VWS V14.01,2013-01-22 18:43:00,
2013-01-22 13:45:00,73.2,54.6,30.15,North,0,6.3,6.3,52,0.00,,---,0.00,VWS V14.01,2013-01-22 18:45:00,
2013-01-22 13:47:00,73.0,54.4,30.15,North,0,6.3,6.3,52,0.00,,---,0.00,VWS V14.01,2013-01-22 18:47:00,
2013-01-22 13:48:00,73.0,54.4,30.15,North,0,6.3,6.3,52,0.00,,---,0.00,VWS V14.01,2013-01-22 18:48:00,
2013-01-22 13:49:00,73.0,54.4,30.15,North,0,6.3,6.3,52,0.00,,---,0.00,VWS V14.01,2013-01-22 18:49:00,
2013-01-22 13:50:00,73.0,54.9,30.15,North,0,6.3,6.3,53,0.00,,---,0.00,VWS V14.01,2013-01-22 18:50:00,
2013-01-22 13:52:00,73.0,54.9,30.15,North,0,6.3,6.3,53,0.00,,---,0.00,VWS V14.01,2013-01-22 18:52:00,
2013-01-22 13:53:00,73.0,54.9,30.15,North,0,6.3,6.3,53,0.00,,---,0.00,VWS V14.01,2013-01-22 18:53:00,
2013-01-22 13:54:00,73.2,55.1,30.15,North,0,6.3,6.3,53,0.00,,---,0.00,VWS V14.01,2013-01-22 18:54:00,
2013-01-22 13:55:00,73.2,55.1,30.15,North,0,6.3,6.3,53,0.00,,---,0.00,VWS V14.01,2013-01-22 18:55:00,
2013-01-22 13:58:00,73.2,55.1,30.15,North,0,6.3,6.3,53,0.00,,---,0.00,VWS V14.01,2013-01-22 18:58:00,
2013-01-22 13:59:00,73.0,55.4,30.15,North,0,6.3,6.3,54,0.00,,---,0.00,VWS V14.01,2013-01-22 18:59:00,
2013-01-22 14:00:00,73.0,55.4,30.15,North,0,6.3,6.3,54,0.00,,---,0.00,VWS V14.01,2013-01-22 19:00:00,
2013-01-22 14:03:00,73.0,55.9,30.15,North,0,6.3,6.3,55,0.00,,---,0.00,VWS V14.01,2013-01-22 19:03:00,
2013-01-22 14:04:00,73.2,56.1,30.15,North,0,6.3,6.3,55,0.00,,---,0.00,VWS V14.01,2013-01-22 19:04:00,
2013-01-22 14:05:00,73.4,56.3,30.15,North,0,6.3,6.3,55,0.00,,---,0.00,VWS V14.01,2013-01-22 19:05:00,
2013-01-22 14:08:00,73.2,56.6,30.15,North,0,6.3,6.3,56,0.00,,---,0.00,VWS V14.01,2013-01-22 19:08:00,
2013-01-22 14:09:00,73.2,56.6,30.15,North,0,6.3,6.3,56,0.00,,---,0.00,VWS V14.01,2013-01-22 19:09:00,
2013-01-22 14:10:00,73.2,56.6,30.15,North,0,6.3,6.3,56,0.00,,---,0.00,VWS V14.01,2013-01-22 19:10:00,
2013-01-22 14:13:00,73.4,56.3,30.15,North,0,6.3,6.3,55,0.00,,---,0.00,VWS V14.01,2013-01-22 19:13:00,
2013-01-22 14:14:00,73.4,56.8,30.15,North,0,6.3,6.3,56,0.00,,---,0.00,VWS V14.01,2013-01-22 19:14:00,
2013-01-22 14:15:00,73.6,56.9,30.15,North,0,6.3,6.3,56,0.00,,---,0.00,VWS V14.01,2013-01-22 19:15:00,
2013-01-22 14:18:00,73.6,56.4,30.15,North,0,6.3,6.3,55,0.00,,---,0.00,VWS V14.01,2013-01-22 19:18:00,
2013-01-22 14:19:00,73.6,56.9,30.15,North,0,6.3,6.3,56,0.00,,---,0.00,VWS V14.01,2013-01-22 19:19:00,
2013-01-22 14:20:00,73.6,56.9,30.15,North,0,6.3,6.3,56,0.00,,---,0.00,VWS V14.01,2013-01-22 19:20:00,
2013-01-22 14:23:00,73.8,56.6,30.15,North,0,6.3,6.3,55,0.00,,---,0.00,VWS V14.01,2013-01-22 19:23:00,
2013-01-22 14:24:00,73.9,56.8,30.15,North,0,6.3,6.3,55,0.00,,---,0.00,VWS V14.01,2013-01-22 19:24:00,
2013-01-22 14:26:00,73.8,56.6,30.15,North,0,6.3,6.3,55,0.00,,---,0.00,VWS V14.01,2013-01-22 19:26:00,
2013-01-22 14:28:00,73.8,56.6,30.15,North,0,6.3,6.3,55,0.00,,---,0.00,VWS V14.01,2013-01-22 19:28:00,
2013-01-22 14:29:00,73.8,56.6,30.15,North,0,6.3,6.3,55,0.00,,---,0.00,VWS V14.01,2013-01-22 19:29:00,
2013-01-22 14:32:00,73.4,55.8,30.15,North,0,6.3,6.3,54,0.00,,---,0.00,VWS V14.01,2013-01-22 19:32:00,
2013-01-22 14:33:00,73.2,56.1,30.15,North,0,6.3,6.3,55,0.00,,---,0.00,VWS V14.01,2013-01-22 19:33:00,
2013-01-22 14:34:00,73.2,56.1,30.15,North,0,6.3,6.3,55,0.00,,---,0.00,VWS V14.01,2013-01-22 19:34:00,
2013-01-22 14:37:00,73.0,55.9,30.15,North,0,6.3,6.3,55,0.00,,---,0.00,VWS V14.01,2013-01-22 19:37:00,
2013-01-22 14:38:00,73.0,55.9,30.15,North,0,6.3,6.3,55,0.00,,---,0.00,VWS V14.01,2013-01-22 19:38:00,
2013-01-22 14:39:00,73.0,55.9,30.15,North,0,6.3,6.3,55,0.00,,---,0.00,VWS V14.01,2013-01-22 19:39:00,
2013-01-22 14:40:00,73.0,55.9,30.15,North,0,6.3,6.3,55,0.00,,---,0.00,VWS V14.01,2013-01-22 19:40:00,
2013-01-22 14:42:00,72.9,55.8,30.15,North,0,6.3,6.3,55,0.00,,---,0.00,VWS V14.01,2013-01-22 19:42:00,
2013-01-22 14:44:00,72.9,55.8,30.15,North,0,6.3,6.3,55,0.00,,---,0.00,VWS V14.01,2013-01-22 19:44:00,
2013-01-22 14:45:00,72.7,56.1,30.15,North,0,6.3,6.3,56,0.00,,---,0.00,VWS V14.01,2013-01-22 19:45:00,
2013-01-22 14:47:00,72.5,55.9,30.15,North,0,6.3,6.3,56,0.00,,---,0.00,VWS V14.01,2013-01-22 19:47:00,
2013-01-22 14:49:00,72.5,55.9,30.15,North,0,6.3,6.3,56,0.00,,---,0.00,VWS V14.01,2013-01-22 19:49:00,
2013-01-22 14:50:00,72.3,55.8,30.15,North,0,6.3,6.3,56,0.00,,---,0.00,VWS V14.01,2013-01-22 19:50:00,
2013-01-22 14:52:00,72.3,55.8,30.15,North,0,6.3,6.3,56,0.00,,---,0.00,VWS V14.01,2013-01-22 19:52:00,
2013-01-22 14:54:00,72.5,56.4,30.15,North,0,6.3,6.3,57,0.00,,---,0.00,VWS V14.01,2013-01-22 19:54:00,
2013-01-22 14:55:00,72.7,56.6,30.15,North,0,6.3,6.3,57,0.00,,---,0.00,VWS V14.01,2013-01-22 19:55:00,
2013-01-22 14:57:00,72.9,56.8,30.15,North,0,6.3,6.3,57,0.00,,---,0.00,VWS V14.01,2013-01-22 19:57:00,
2013-01-22 14:59:00,73.0,56.9,30.15,North,0,6.3,6.3,57,0.00,,---,0.00,VWS V14.01,2013-01-22 19:59:00,
2013-01-22 15:00:00,73.0,57.4,30.15,North,0,6.3,6.3,58,0.00,,---,0.00,VWS V14.01,2013-01-22 20:00:00,
2013-01-22 15:02:00,73.0,57.4,30.15,North,0,6.3,6.3,58,0.00,,---,0.00,VWS V14.01,2013-01-22 20:02:00,
2013-01-22 15:04:00,72.9,56.3,30.15,North,0,6.3,6.3,56,0.00,,---,0.00,VWS V14.01,2013-01-22 20:04:00,
2013-01-22 15:05:00,72.7,56.1,30.15,North,0,6.3,6.3,56,0.00,,---,0.00,VWS V14.01,2013-01-22 20:05:00,
2013-01-22 15:07:00,72.9,56.3,30.15,North,0,6.3,6.3,56,0.00,,---,0.00,VWS V14.01,2013-01-22 20:07:00,
2013-01-22 15:09:00,73.0,56.4,30.15,North,0,6.3,6.3,56,0.00,,---,0.00,VWS V14.01,2013-01-22 20:09:00,
2013-01-22 15:10:00,73.0,56.9,30.15,North,0,6.3,6.3,57,0.00,,---,0.00,VWS V14.01,2013-01-22 20:10:00,
2013-01-22 15:13:00,73.0,56.4,30.15,North,0,6.3,6.3,56,0.00,,---,0.00,VWS V14.01,2013-01-22 20:13:00,
2013-01-22 15:14:00,72.5,55.4,30.15,North,0,6.3,6.3,55,0.00,,---,0.00,VWS V14.01,2013-01-22 20:14:00,
2013-01-22 15:15:00,72.5,55.4,30.15,North,0,6.3,6.3,55,0.00,,---,0.00,VWS V14.01,2013-01-22 20:15:00,
2013-01-22 15:18:00,72.1,55.1,30.15,North,0,6.3,6.3,55,0.00,,---,0.00,VWS V14.01,2013-01-22 20:18:00,
2013-01-22 15:19:00,72.1,55.1,30.15,North,0,6.3,6.3,55,0.00,,---,0.00,VWS V14.01,2013-01-22 20:19:00,
2013-01-22 15:20:00,72.0,55.4,30.15,North,0,6.3,6.3,56,0.00,,---,0.00,VWS V14.01,2013-01-22 20:20:00,
2013-01-22 15:23:00,72.0,55.4,30.15,North,0,6.3,6.3,56,0.00,,---,0.00,VWS V14.01,2013-01-22 20:23:00,
2013-01-22 15:24:00,71.8,55.3,30.15,North,0,6.3,6.3,56,0.00,,---,0.00,VWS V14.01,2013-01-22 20:24:00,
2013-01-22 15:25:00,71.8,55.3,30.15,North,0,6.3,6.3,56,0.00,,---,0.00,VWS V14.01,2013-01-22 20:25:00,
2013-01-22 15:28:00,71.6,54.6,30.15,North,0,6.3,6.3,55,0.00,,---,0.00,VWS V14.01,2013-01-22 20:28:00,
2013-01-22 15:29:00,71.6,54.6,30.15,North,0,6.3,6.3,55,0.00,,---,0.00,VWS V14.01,2013-01-22 20:29:00,
2013-01-22 15:30:00,71.6,55.1,30.15,North,0,6.3,6.3,56,0.00,,---,0.00,VWS V14.01,2013-01-22 20:30:00,
2013-01-22 15:33:00,71.6,55.1,30.15,North,0,6.3,6.3,56,0.00,,---,0.00,VWS V14.01,2013-01-22 20:33:00,
2013-01-22 15:35:00,71.6,55.1,30.15,North,0,6.3,6.3,56,0.00,,---,0.00,VWS V14.01,2013-01-22 20:35:00,
2013-01-22 15:38:00,71.6,55.1,30.15,North,0,6.3,6.3,56,0.00,,---,0.00,VWS V14.01,2013-01-22 20:38:00,
2013-01-22 15:40:00,71.6,54.6,30.15,North,0,6.3,6.3,55,0.00,,---,0.00,VWS V14.01,2013-01-22 20:40:00,
2013-01-22 15:41:00,71.6,55.1,30.15,North,0,6.3,6.3,56,0.00,,---,0.00,VWS V14.01,2013-01-22 20:41:00,
2013-01-22 15:43:00,71.8,55.3,30.15,North,0,6.3,6.3,56,0.00,,---,0.00,VWS V14.01,2013-01-22 20:43:00,
2013-01-22 15:45:00,72.0,55.4,30.15,North,0,6.3,6.3,56,0.00,,---,0.00,VWS V14.01,2013-01-22 20:45:00,
2013-01-22 15:46:00,72.0,55.4,30.15,North,0,6.3,6.3,56,0.00,,---,0.00,VWS V14.01,2013-01-22 20:46:00,
2013-01-22 15:48:00,71.8,55.3,30.15,North,0,6.3,6.3,56,0.00,,---,0.00,VWS V14.01,2013-01-22 20:48:00,
2013-01-22 15:50:00,71.6,55.1,30.15,North,0,6.3,6.3,56,0.00,,---,0.00,VWS V14.01,2013-01-22 20:50:00,
2013-01-22 15:51:00,71.6,55.1,30.15,North,0,6.3,6.3,56,0.00,,---,0.00,VWS V14.01,2013-01-22 20:51:00,
2013-01-22 15:53:00,71.6,55.1,30.15,North,0,6.3,6.3,56,0.00,,---,0.00,VWS V14.01,2013-01-22 20:53:00,
2013-01-22 15:55:00,71.6,55.1,30.15,North,0,6.3,6.3,56,0.00,,---,0.00,VWS V14.01,2013-01-22 20:55:00,
2013-01-22 15:56:00,71.6,55.1,30.15,North,0,6.3,6.3,56,0.00,,---,0.00,VWS V14.01,2013-01-22 20:56:00,
2013-01-22 15:58:00,71.6,55.1,30.15,North,0,6.3,6.3,56,0.00,,---,0.00,VWS V14.01,2013-01-22 20:58:00,
2013-01-22 16:00:00,71.6,54.6,30.15,North,0,6.3,6.3,55,0.00,,---,0.00,VWS V14.01,2013-01-22 21:00:00,
2013-01-22 16:01:00,71.6,55.1,30.15,North,0,6.3,6.3,56,0.00,,---,0.00,VWS V14.01,2013-01-22 21:01:00,
2013-01-22 16:02:00,71.6,55.1,30.15,North,0,6.3,6.3,56,0.00,,---,0.00,VWS V14.01,2013-01-22 21:02:00,
2013-01-22 16:03:00,71.6,55.1,30.15,North,0,6.3,6.3,56,0.00,,---,0.00,VWS V14.01,2013-01-22 21:03:00,
2013-01-22 16:05:00,71.8,55.3,30.15,North,0,6.3,6.3,56,0.00,,---,0.00,VWS V14.01,2013-01-22 21:05:00,
2013-01-22 16:06:00,71.8,55.3,30.15,North,0,6.3,6.3,56,0.00,,---,0.00,VWS V14.01,2013-01-22 21:06:00,
2013-01-22 16:07:00,71.8,55.3,30.15,North,0,6.3,6.3,56,0.00,,---,0.00,VWS V14.01,2013-01-22 21:07:00,
2013-01-22 16:08:00,71.8,55.3,30.15,North,0,6.3,6.3,56,0.00,,---,0.00,VWS V14.01,2013-01-22 21:08:00,
2013-01-22 16:10:00,72.0,55.4,30.15,North,0,6.3,6.3,56,0.00,,---,0.00,VWS V14.01,2013-01-22 21:10:00,
2013-01-22 16:12:00,72.0,55.4,30.15,North,0,6.3,6.3,56,0.00,,---,0.00,VWS V14.01,2013-01-22 21:12:00,
2013-01-22 16:13:00,71.8,54.8,30.15,North,0,6.3,6.3,55,0.00,,---,0.00,VWS V14.01,2013-01-22 21:13:00,
2013-01-22 16:15:00,71.6,54.6,30.15,North,0,6.3,6.3,55,0.00,,---,0.00,VWS V14.01,2013-01-22 21:15:00,
2013-01-22 16:17:00,71.6,54.6,30.15,North,0,6.3,6.3,55,0.00,,---,0.00,VWS V14.01,2013-01-22 21:17:00,
2013-01-22 16:18:00,71.4,54.9,30.15,North,0,6.3,6.3,56,0.00,,---,0.00,VWS V14.01,2013-01-22 21:18:00,
2013-01-22 16:20:00,71.4,54.9,30.15,North,0,6.3,6.3,56,0.00,,---,0.00,VWS V14.01,2013-01-22 21:20:00,
2013-01-22 16:22:00,71.4,54.9,30.15,North,0,6.3,6.3,56,0.00,,---,0.00,VWS V14.01,2013-01-22 21:22:00,
2013-01-22 16:23:00,71.4,54.9,30.15,North,0,6.3,6.3,56,0.00,,---,0.00,VWS V14.01,2013-01-22 21:23:00,
2013-01-22 16:25:00,71.4,54.9,30.15,North,0,6.3,6.3,56,0.00,,---,0.00,VWS V14.01,2013-01-22 21:25:00,
2013-01-22 16:27:00,71.6,55.1,30.15,North,0,6.3,6.3,56,0.00,,---,0.00,VWS V14.01,2013-01-22 21:27:00,
2013-01-22 16:29:00,71.6,55.1,30.15,North,0,6.3,6.3,56,0.00,,---,0.00,VWS V14.01,2013-01-22 21:29:00,
2013-01-22 16:30:00,71.6,55.1,30.15,North,0,6.3,6.3,56,0.00,,---,0.00,VWS V14.01,2013-01-22 21:30:00,
2013-01-22 16:31:00,71.6,55.1,30.15,North,0,6.3,6.3,56,0.00,,---,0.00,VWS V14.01,2013-01-22 21:31:00,
2013-01-22 16:32:00,71.6,55.1,30.15,North,0,6.3,6.3,56,0.00,,---,0.00,VWS V14.01,2013-01-22 21:32:00,
2013-01-22 16:33:00,71.6,55.1,30.15,North,0,6.3,6.3,56,0.00,,---,0.00,VWS V14.01,2013-01-22 21:33:00,
2013-01-22 16:35:00,71.6,55.1,30.15,North,0,6.3,6.3,56,0.00,,---,0.00,VWS V14.01,2013-01-22 21:35:00,
2013-01-22 16:37:00,71.4,54.9,30.15,North,0,6.3,6.3,56,0.00,,---,0.00,VWS V14.01,2013-01-22 21:37:00,
2013-01-22 16:38:00,71.4,54.9,30.15,North,0,6.3,6.3,56,0.00,,---,0.00,VWS V14.01,2013-01-22 21:38:00,
2013-01-22 16:40:00,71.4,54.9,30.15,North,0,6.3,6.3,56,0.00,,---,0.00,VWS V14.01,2013-01-22 21:40:00,
2013-01-22 16:42:00,71.4,54.9,30.15,North,0,6.3,6.3,56,0.00,,---,0.00,VWS V14.01,2013-01-22 21:42:00,
2013-01-22 16:43:00,71.4,54.9,30.15,North,0,6.3,6.3,56,0.00,,---,0.00,VWS V14.01,2013-01-22 21:43:00,
2013-01-22 16:45:00,71.2,54.8,30.15,North,0,6.3,6.3,56,0.00,,---,0.00,VWS V14.01,2013-01-22 21:45:00,
2013-01-22 16:47:00,71.2,54.8,30.15,North,0,6.3,6.3,56,0.00,,---,0.00,VWS V14.01,2013-01-22 21:47:00,
2013-01-22 16:48:00,71.2,54.8,30.15,North,0,6.3,6.3,56,0.00,,---,0.00,VWS V14.01,2013-01-22 21:48:00,
2013-01-22 16:50:00,71.2,55.2,30.15,North,0,6.3,6.3,57,0.00,,---,0.00,VWS V14.01,2013-01-22 21:50:00,
2013-01-22 16:52:00,71.1,55.1,30.15,North,0,6.3,6.3,57,0.00,,---,0.00,VWS V14.01,2013-01-22 21:52:00,
2013-01-22 16:53:00,71.1,55.1,30.15,North,0,6.3,6.3,57,0.00,,---,0.00,VWS V14.01,2013-01-22 21:53:00,
2013-01-22 16:56:00,71.1,54.6,30.15,North,0,6.3,6.3,56,0.00,,---,0.00,VWS V14.01,2013-01-22 21:56:00,
2013-01-22 16:58:00,71.1,54.6,30.15,North,0,6.3,6.3,56,0.00,,---,0.00,VWS V14.01,2013-01-22 21:58:00,
2013-01-22 17:01:00,70.9,53.9,30.18,North,353,6.3,6.3,55,0.00,,---,0.00,VWS V14.01,2013-01-22 22:01:00,
2013-01-22 17:03:00,70.9,53.9,30.18,North,353,6.3,6.3,55,0.00,,---,0.00,VWS V14.01,2013-01-22 22:03:00,
2013-01-22 17:06:00,70.7,53.8,30.18,North,353,6.3,6.3,55,0.00,,---,0.00,VWS V14.01,2013-01-22 22:06:00,
2013-01-22 17:08:00,70.7,54.2,30.18,North,353,6.3,6.3,56,0.00,,---,0.00,VWS V14.01,2013-01-22 22:08:00,
2013-01-22 17:11:00,70.5,54.1,30.18,North,353,6.3,6.3,56,0.00,,---,0.00,VWS V14.01,2013-01-22 22:11:00,
2013-01-22 17:13:00,70.3,53.4,30.18,North,353,6.3,6.3,55,0.00,,---,0.00,VWS V14.01,2013-01-22 22:13:00,
2013-01-22 17:16:00,70.3,53.4,30.18,North,353,6.3,6.3,55,0.00,,---,0.00,VWS V14.01,2013-01-22 22:16:00,
2013-01-22 17:18:00,70.2,53.3,30.18,North,353,6.3,6.3,55,0.00,,---,0.00,VWS V14.01,2013-01-22 22:18:00,
2013-01-22 17:19:00,70.2,53.3,30.18,North,353,6.3,6.3,55,0.00,,---,0.00,VWS V14.01,2013-01-22 22:19:00,
2013-01-22 17:22:00,70.2,53.3,30.18,NW,323,6.7,6.7,55,0.00,,---,0.00,VWS V14.01,2013-01-22 22:22:00,
2013-01-22 17:23:00,70.2,53.3,30.18,NW,323,6.7,6.7,55,0.00,,---,0.00,VWS V14.01,2013-01-22 22:23:00,
2013-01-22 17:24:00,70.2,53.3,30.18,NW,323,6.7,6.7,55,0.00,,---,0.00,VWS V14.01,2013-01-22 22:24:00,
2013-01-22 17:27:00,70.0,53.1,30.18,NW,323,6.7,6.7,55,0.00,,---,0.00,VWS V14.01,2013-01-22 22:27:00,
2013-01-22 17:28:00,70.0,53.1,30.18,NW,323,6.7,6.7,55,0.00,,---,0.00,VWS V14.01,2013-01-22 22:28:00,
2013-01-22 17:29:00,70.0,53.1,30.18,NW,323,6.7,6.7,55,0.00,,---,0.00,VWS V14.01,2013-01-22 22:29:00,
2013-01-22 17:32:00,69.8,52.4,30.18,NW,323,6.7,6.7,54,0.00,,---,0.00,VWS V14.01,2013-01-22 22:32:00,
2013-01-22 17:33:00,69.8,52.4,30.18,NW,323,6.7,6.7,54,0.00,,---,0.00,VWS V14.01,2013-01-22 22:33:00,
2013-01-22 17:34:00,69.8,52.4,30.18,NW,323,6.7,6.7,54,0.00,,---,0.00,VWS V14.01,2013-01-22 22:34:00,
2013-01-22 17:37:00,69.6,52.3,30.18,NW,323,6.7,6.7,54,0.00,,---,0.00,VWS V14.01,2013-01-22 22:37:00,
2013-01-22 17:39:00,69.6,52.8,30.18,NW,323,6.7,6.7,55,0.00,,---,0.00,VWS V14.01,2013-01-22 22:39:00,
2013-01-22 17:42:00,69.6,52.8,30.18,NW,323,6.7,6.7,55,0.00,,---,0.00,VWS V14.01,2013-01-22 22:42:00,
2013-01-22 17:44:00,69.4,52.1,30.18,NW,323,6.7,6.7,54,0.00,,---,0.00,VWS V14.01,2013-01-22 22:44:00,
2013-01-22 17:47:00,69.4,52.6,30.18,NW,323,6.7,6.7,55,0.00,,---,0.00,VWS V14.01,2013-01-22 22:47:00,
2013-01-22 17:49:00,69.4,52.6,30.18,NW,323,6.7,6.7,55,0.00,,---,0.00,VWS V14.01,2013-01-22 22:49:00,
2013-01-22 17:52:00,69.3,52.4,30.18,NW,323,6.7,6.7,55,0.00,,---,0.00,VWS V14.01,2013-01-22 22:52:00,
2013-01-22 17:54:00,69.3,52.4,30.18,NW,323,6.7,6.7,55,0.00,,---,0.00,VWS V14.01,2013-01-22 22:54:00,
2013-01-22 17:57:00,69.3,52.4,30.18,NW,323,6.7,6.7,55,0.00,,---,0.00,VWS V14.01,2013-01-22 22:57:00,
2013-01-22 17:59:00,69.3,52.4,30.18,NW,323,6.7,6.7,55,0.00,,---,0.00,VWS V14.01,2013-01-22 22:59:00,
2013-01-22 18:02:00,69.1,52.2,30.18,NW,323,6.7,6.7,55,0.00,,---,0.00,VWS V14.01,2013-01-22 23:02:00,
2013-01-22 18:04:00,69.1,52.2,30.18,NW,323,6.7,6.7,55,0.00,,---,0.00,VWS V14.01,2013-01-22 23:04:00,
2013-01-22 18:08:00,69.1,52.2,30.18,NW,323,6.7,6.7,55,0.00,,---,0.00,VWS V14.01,2013-01-22 23:08:00,
2013-01-22 18:09:00,69.1,51.8,30.18,NW,323,6.7,6.7,54,0.00,,---,0.00,VWS V14.01,2013-01-22 23:09:00,
2013-01-22 18:13:00,69.1,51.8,30.18,NNW,342,6.3,6.3,54,0.00,,---,0.00,VWS V14.01,2013-01-22 23:13:00,
2013-01-22 18:14:00,69.1,51.8,30.18,North,4,5.8,6.3,54,0.00,,---,0.00,VWS V14.01,2013-01-22 23:14:00,
2013-01-22 18:15:00,69.1,51.8,30.18,North,4,5.8,6.3,54,0.00,,---,0.00,VWS V14.01,2013-01-22 23:15:00,
2013-01-22 18:18:00,69.1,51.2,30.18,WNW,298,4.5,5.8,53,0.00,,---,0.00,VWS V14.01,2013-01-22 23:18:00,
2013-01-22 18:19:00,69.1,51.2,30.18,WNW,298,4.5,4.5,53,0.00,,---,0.00,VWS V14.01,2013-01-22 23:19:00,
2013-01-22 18:20:00,69.1,51.2,30.18,NNE,19,4.9,4.9,53,0.00,,---,0.00,VWS V14.01,2013-01-22 23:20:00,
2013-01-22 18:24:00,68.9,51.6,30.18,NNW,344,5.4,5.4,54,0.00,,---,0.00,VWS V14.01,2013-01-22 23:24:00,
2013-01-22 18:25:00,68.9,51.6,30.18,NNW,335,5.8,5.8,54,0.00,,---,0.00,VWS V14.01,2013-01-22 23:25:00,
2013-01-22 18:29:00,68.9,51.1,30.18,NW,322,3.6,7.6,53,0.00,,---,0.00,VWS V14.01,2013-01-22 23:29:00,
2013-01-22 18:30:00,68.9,50.6,30.18,NNW,331,5.4,5.4,52,0.00,,---,0.00,VWS V14.01,2013-01-22 23:30:00,
2013-01-22 18:34:00,68.9,50.6,30.18,NW,304,5.8,5.8,52,0.00,,---,0.00,VWS V14.01,2013-01-22 23:34:00,
2013-01-22 18:35:00,68.9,50.6,30.18,NNW,345,4.0,5.8,52,0.00,,---,0.00,VWS V14.01,2013-01-22 23:35:00,
2013-01-22 18:39:00,68.7,50.4,30.18,NNW,342,3.1,3.1,52,0.00,,---,0.00,VWS V14.01,2013-01-22 23:39:00,
2013-01-22 18:40:00,68.7,50.4,30.18,North,5,4.9,4.9,52,0.00,,---,0.00,VWS V14.01,2013-01-22 23:40:00,
2013-01-22 18:44:00,68.7,50.4,30.18,NW,324,7.6,7.6,52,0.00,,---,0.00,VWS V14.01,2013-01-22 23:44:00,
2013-01-22 18:45:00,68.7,49.9,30.18,NW,324,7.6,7.6,51,0.00,,---,0.00,VWS V14.01,2013-01-22 23:45:00,
2013-01-22 18:49:00,68.7,49.9,30.18,NNW,335,3.6,4.9,51,0.00,,---,0.00,VWS V14.01,2013-01-22 23:49:00,
2013-01-22 18:50:00,68.7,49.9,30.18,NNW,335,3.6,4.9,51,0.00,,---,0.00,VWS V14.01,2013-01-22 23:50:00,
2013-01-22 18:54:00,68.5,50.2,30.18,North,353,6.7,6.7,52,0.00,,---,0.00,VWS V14.01,2013-01-22 23:54:00,
2013-01-22 18:55:00,68.5,50.2,30.18,North,353,6.7,6.7,52,0.00,,---,0.00,VWS V14.01,2013-01-22 23:55:00,
2013-01-22 18:59:00,68.5,50.2,30.18,WNW,296,5.8,5.8,52,0.00,,---,0.00,VWS V14.01,2013-01-22 23:59:00,
2013-01-22 19:00:00,68.5,50.2,30.18,NNW,342,8.1,8.1,52,0.00,,---,0.00,VWS V14.01,2013-01-23 00:00:00,
2013-01-22 19:04:00,68.5,50.2,30.18,West,274,3.6,3.6,52,0.00,,---,0.00,VWS V14.01,2013-01-23 00:04:00,
2013-01-22 19:05:00,68.5,50.2,30.18,West,274,3.6,3.6,52,0.00,,---,0.00,VWS V14.01,2013-01-23 00:05:00,
2013-01-22 19:09:00,68.4,50.6,30.18,NE,56,4.0,4.0,53,0.00,,---,0.00,VWS V14.01,2013-01-23 00:09:00,
2013-01-22 19:10:00,68.4,50.6,30.18,NNW,340,4.0,4.0,53,0.00,,---,0.00,VWS V14.01,2013-01-23 00:10:00,
2013-01-22 19:14:00,68.4,50.1,30.18,North,10,6.3,6.3,52,0.00,,---,0.00,VWS V14.01,2013-01-23 00:14:00,
2013-01-22 19:15:00,68.4,50.1,30.18,North,10,6.3,6.3,52,0.00,,---,0.00,VWS V14.01,2013-01-23 00:15:00,
2013-01-22 19:20:00,68.2,50.4,30.18,NNW,332,2.7,2.7,53,0.00,,---,0.00,VWS V14.01,2013-01-23 00:20:00,
2013-01-22 19:25:00,68.2,50.4,30.18,WNW,298,5.8,5.8,53,0.00,,---,0.00,VWS V14.01,2013-01-23 00:25:00,
2013-01-22 19:26:00,68.2,50.4,30.18,NE,43,5.4,5.8,53,0.00,,---,0.00,VWS V14.01,2013-01-23 00:26:00,
2013-01-22 19:30:00,68.4,50.1,30.18,NNE,33,5.8,5.8,52,0.00,,---,0.00,VWS V14.01,2013-01-23 00:30:00,
2013-01-22 19:31:00,68.4,50.1,30.18,NW,304,3.1,3.1,52,0.00,,---,0.00,VWS V14.01,2013-01-23 00:31:00,
2013-01-22 19:35:00,68.4,50.6,30.18,NNW,345,5.4,5.4,53,0.00,,---,0.00,VWS V14.01,2013-01-23 00:35:00,
2013-01-22 19:36:00,68.4,50.6,30.18,WNW,298,6.7,6.7,53,0.00,,---,0.00,VWS V14.01,2013-01-23 00:36:00,
2013-01-22 19:40:00,68.4,50.1,30.18,NE,51,4.9,9.6,52,0.00,,---,0.00,VWS V14.01,2013-01-23 00:40:00,
2013-01-22 19:41:00,68.4,49.5,30.18,NNW,346,7.6,9.6,51,0.00,,---,0.00,VWS V14.01,2013-01-23 00:41:00,
2013-01-22 19:45:00,68.4,49.5,30.18,NNW,341,2.7,2.7,51,0.00,,---,0.00,VWS V14.01,2013-01-23 00:45:00,
2013-01-22 19:46:00,68.4,49.5,30.18,North,349,2.2,2.2,51,0.00,,---,0.00,VWS V14.01,2013-01-23 00:46:00,
2013-01-22 19:50:00,68.4,49.5,30.18,NW,318,5.4,5.4,51,0.00,,---,0.00,VWS V14.01,2013-01-23 00:50:00,
2013-01-22 19:51:00,68.4,49.5,30.18,NW,319,4.0,4.0,51,0.00,,---,0.00,VWS V14.01,2013-01-23 00:51:00,
2013-01-22 19:55:00,68.4,49.5,30.18,NNE,25,6.3,6.3,51,0.00,,---,0.00,VWS V14.01,2013-01-23 00:55:00,
2013-01-22 19:56:00,68.2,49.9,30.18,WNW,289,3.6,6.3,52,0.00,,---,0.00,VWS V14.01,2013-01-23 00:56:00,
2013-01-22 20:00:00,68.2,49.9,30.18,NNW,341,6.3,6.3,52,0.00,,---,0.00,VWS V14.01,2013-01-23 01:00:00,
2013-01-22 20:02:00,68.2,49.9,30.18,NNW,333,5.4,5.4,52,0.00,,---,0.00,VWS V14.01,2013-01-23 01:02:00,
2013-01-22 20:05:00,68.2,49.9,30.18,West,276,5.4,5.4,52,0.00,,---,0.00,VWS V14.01,2013-01-23 01:05:00,
2013-01-22 20:06:00,68.2,49.9,30.18,West,276,5.4,5.4,52,0.00,,---,0.00,VWS V14.01,2013-01-23 01:06:00,
2013-01-22 20:07:00,68.2,49.9,30.18,NNE,16,3.1,3.1,52,0.00,,---,0.00,VWS V14.01,2013-01-23 01:07:00,
2013-01-22 20:08:00,68.2,49.9,30.18,NNE,17,0.0,0.0,52,0.00,,---,0.00,VWS V14.01,2013-01-23 01:08:00,
2013-01-22 20:11:00,68.2,49.9,30.18,North,2,5.8,8.3,52,0.00,,---,0.00,VWS V14.01,2013-01-23 01:11:00,
2013-01-22 20:12:00,68.2,49.9,30.18,NE,41,4.0,6.3,52,0.00,,---,0.00,VWS V14.01,2013-01-23 01:12:00,
2013-01-22 20:13:00,68.2,49.9,30.18,NE,41,4.0,6.3,52,0.00,,---,0.00,VWS V14.01,2013-01-23 01:13:00,
2013-01-22 20:16:00,68.4,50.1,30.18,ENE,58,5.4,5.4,52,0.00,,---,0.00,VWS V14.01,2013-01-23 01:16:00,
2013-01-22 20:18:00,68.2,49.9,30.18,WNW,296,2.2,5.4,52,0.00,,---,0.00,VWS V14.01,2013-01-23 01:18:00,
2013-01-22 20:21:00,68.4,50.1,30.18,NNW,334,7.6,7.6,52,0.00,,---,0.00,VWS V14.01,2013-01-23 01:21:00,
2013-01-22 20:23:00,68.2,49.9,30.18,NNE,20,4.0,4.0,52,0.00,,---,0.00,VWS V14.01,2013-01-23 01:23:00,
2013-01-22 20:26:00,68.2,49.9,30.18,North,9,6.3,6.3,52,0.00,,---,0.00,VWS V14.01,2013-01-23 01:26:00,
2013-01-22 20:28:00,68.2,49.9,30.18,North,353,5.8,5.8,52,0.00,,---,0.00,VWS V14.01,2013-01-23 01:28:00,
2013-01-22 20:31:00,68.2,49.9,30.18,NW,316,6.7,6.7,52,0.00,,---,0.00,VWS V14.01,2013-01-23 01:31:00,
2013-01-22 20:32:00,68.2,49.9,30.18,NNE,19,5.4,5.4,52,0.00,,---,0.00,VWS V14.01,2013-01-23 01:32:00,
2013-01-22 20:33:00,68.2,49.9,30.18,NNE,29,4.0,8.7,52,0.00,,---,0.00,VWS V14.01,2013-01-23 01:33:00,
2013-01-22 20:37:00,68.2,49.9,30.18,NNE,29,4.9,4.9,52,0.00,,---,0.00,VWS V14.01,2013-01-23 01:37:00,
2013-01-22 20:38:00,68.2,49.9,30.18,North,357,5.4,5.4,52,0.00,,---,0.00,VWS V14.01,2013-01-23 01:38:00,
2013-01-22 20:42:00,68.2,49.9,30.18,NNE,30,5.8,5.8,52,0.00,,---,0.00,VWS V14.01,2013-01-23 01:42:00,
2013-01-22 20:43:00,68.2,49.9,30.18,NNE,14,3.1,3.1,52,0.00,,---,0.00,VWS V14.01,2013-01-23 01:43:00,
2013-01-22 20:47:00,68.2,49.9,30.18,NNW,342,8.7,8.7,52,0.00,,---,0.00,VWS V14.01,2013-01-23 01:47:00,
2013-01-22 20:48:00,68.2,49.9,30.18,NNE,31,6.3,8.7,52,0.00,,---,0.00,VWS V14.01,2013-01-23 01:48:00,
2013-01-22 20:52:00,68.2,49.4,30.18,NW,316,8.3,8.3,51,0.00,,---,0.00,VWS V14.01,2013-01-23 01:52:00,
2013-01-22 20:53:00,68.2,49.4,30.18,North,0,5.8,8.3,51,0.00,,---,0.00,VWS V14.01,2013-01-23 01:53:00,
2013-01-22 20:57:00,68.2,49.4,30.18,North,357,4.0,4.0,51,0.00,,---,0.00,VWS V14.01,2013-01-23 01:57:00,
2013-01-22 20:58:00,68.2,49.4,30.18,NNE,19,3.1,3.1,51,0.00,,---,0.00,VWS V14.01,2013-01-23 01:58:00,
2013-01-22 21:03:00,68.2,49.4,30.18,NNE,19,4.0,6.3,51,0.00,,---,0.00,VWS V14.01,2013-01-23 02:03:00,
2013-01-22 21:08:00,68.0,49.2,30.18,NW,324,3.6,3.6,51,0.00,,---,0.00,VWS V14.01,2013-01-23 02:08:00,
2013-01-22 21:09:00,68.0,49.2,30.18,North,0,2.7,2.7,51,0.00,,---,0.00,VWS V14.01,2013-01-23 02:09:00,
2013-01-22 21:13:00,68.2,48.8,30.18,NW,318,8.7,11.0,50,0.00,,---,0.00,VWS V14.01,2013-01-23 02:13:00,
2013-01-22 21:14:00,68.2,49.4,30.18,NE,36,5.8,5.8,51,0.00,,---,0.00,VWS V14.01,2013-01-23 02:14:00,
2013-01-22 21:18:00,68.2,49.4,30.18,North,5,3.1,3.1,51,0.00,,---,0.00,VWS V14.01,2013-01-23 02:18:00,
2013-01-22 21:19:00,68.0,49.2,30.18,NE,39,2.7,5.8,51,0.00,,---,0.00,VWS V14.01,2013-01-23 02:19:00,
2013-01-22 21:23:00,68.0,49.2,30.18,NW,306,4.9,4.9,51,0.00,,---,0.00,VWS V14.01,2013-01-23 02:23:00,
2013-01-22 21:25:00,68.0,48.7,30.18,NW,306,4.0,4.9,50,0.00,,---,0.00,VWS V14.01,2013-01-23 02:25:00,
2013-01-22 21:28:00,68.0,48.7,30.18,West,264,4.9,4.9,50,0.00,,---,0.00,VWS V14.01,2013-01-23 02:28:00,
2013-01-22 21:29:00,68.0,48.7,30.18,West,264,4.9,4.9,50,0.00,,---,0.00,VWS V14.01,2013-01-23 02:29:00,
2013-01-22 21:30:00,68.0,48.7,30.18,WNW,303,3.1,4.0,50,0.00,,---,0.00,VWS V14.01,2013-01-23 02:30:00,
2013-01-22 21:33:00,68.0,48.7,30.18,West,279,3.1,3.1,50,0.00,,---,0.00,VWS V14.01,2013-01-23 02:33:00,
2013-01-22 21:34:00,68.0,48.7,30.18,North,3,2.2,3.1,50,0.00,,---,0.00,VWS V14.01,2013-01-23 02:34:00,
2013-01-22 21:35:00,68.0,48.7,30.18,NNW,327,4.0,4.0,50,0.00,,---,0.00,VWS V14.01,2013-01-23 02:35:00,
2013-01-22 21:38:00,68.0,49.2,30.18,ENE,62,5.8,6.7,51,0.00,,---,0.00,VWS V14.01,2013-01-23 02:38:00,
2013-01-22 21:39:00,68.0,49.2,30.18,West,260,3.1,5.8,51,0.00,,---,0.00,VWS V14.01,2013-01-23 02:39:00,
2013-01-22 21:40:00,68.0,49.2,30.18,West,260,3.1,3.1,51,0.00,,---,0.00,VWS V14.01,2013-01-23 02:40:00,
2013-01-22 21:43:00,68.0,49.2,30.18,NW,307,6.3,6.3,51,0.00,,---,0.00,VWS V14.01,2013-01-23 02:43:00,
2013-01-22 21:44:00,68.0,49.2,30.18,NW,307,6.3,6.3,51,0.00,,---,0.00,VWS V14.01,2013-01-23 02:44:00,
2013-01-22 21:45:00,68.0,49.2,30.18,North,357,6.3,6.3,51,0.00,,---,0.00,VWS V14.01,2013-01-23 02:45:00,
2013-01-22 21:48:00,68.0,49.2,30.18,NNW,330,4.0,5.4,51,0.00,,---,0.00,VWS V14.01,2013-01-23 02:48:00,
2013-01-22 21:49:00,68.0,49.2,30.18,WNW,301,6.3,6.3,51,0.00,,---,0.00,VWS V14.01,2013-01-23 02:49:00,
2013-01-22 21:50:00,67.8,49.0,30.18,NNW,341,4.9,6.3,51,0.00,,---,0.00,VWS V14.01,2013-01-23 02:50:00,
2013-01-22 21:54:00,68.0,49.2,30.18,NNW,340,8.1,8.1,51,0.00,,---,0.00,VWS V14.01,2013-01-23 02:54:00,
2013-01-22 21:55:00,67.8,49.0,30.18,NW,313,5.4,5.4,51,0.00,,---,0.00,VWS V14.01,2013-01-23 02:55:00,
2013-01-22 21:59:00,67.8,49.0,30.18,NNW,337,4.0,4.0,51,0.00,,---,0.00,VWS V14.01,2013-01-23 02:59:00,
2013-01-22 22:00:00,67.6,48.9,30.18,NNW,338,2.2,2.7,51,0.00,,---,0.00,VWS V14.01,2013-01-23 03:00:00,
2013-01-22 22:04:00,67.6,49.4,30.18,NNE,22,5.4,5.4,52,0.00,,---,0.00,VWS V14.01,2013-01-23 03:04:00,
2013-01-22 22:05:00,67.6,49.4,30.18,North,11,3.6,3.6,52,0.00,,---,0.00,VWS V14.01,2013-01-23 03:05:00,
2013-01-22 22:09:00,67.6,49.4,30.18,NNE,30,3.6,3.6,52,0.00,,---,0.00,VWS V14.01,2013-01-23 03:09:00,
2013-01-22 22:10:00,67.6,49.4,30.18,NNE,19,0.0,3.6,52,0.00,,---,0.00,VWS V14.01,2013-01-23 03:10:00,
2013-01-22 22:14:00,67.5,49.2,30.18,NNW,341,0.0,3.1,52,0.00,,---,0.00,VWS V14.01,2013-01-23 03:14:00,
2013-01-22 22:15:00,67.5,49.2,30.18,NNW,341,0.0,0.0,52,0.00,,---,0.00,VWS V14.01,2013-01-23 03:15:00,
2013-01-22 22:19:00,67.5,49.2,30.18,NE,35,5.4,5.4,52,0.00,,---,0.00,VWS V14.01,2013-01-23 03:19:00,
2013-01-22 22:20:00,67.5,49.2,30.18,WSW,254,4.0,4.0,52,0.00,,---,0.00,VWS V14.01,2013-01-23 03:20:00,
2013-01-22 22:22:00,67.5,49.2,30.18,NNW,346,3.6,3.6,52,0.00,,---,0.00,VWS V14.01,2013-01-23 03:22:00,
2013-01-22 22:24:00,67.3,49.1,30.18,NNE,25,3.1,3.6,52,0.00,,---,0.00,VWS V14.01,2013-01-23 03:24:00,
2013-01-22 22:25:00,67.3,49.1,30.18,NNE,25,3.1,3.1,52,0.00,,---,0.00,VWS V14.01,2013-01-23 03:25:00,
2013-01-22 22:27:00,67.3,49.1,30.18,NNE,25,3.6,3.6,52,0.00,,---,0.00,VWS V14.01,2013-01-23 03:27:00,
2013-01-22 22:29:00,67.3,49.1,30.18,NE,43,4.9,4.9,52,0.00,,---,0.00,VWS V14.01,2013-01-23 03:29:00,
2013-01-22 22:30:00,67.3,49.1,30.18,NNW,348,5.4,5.4,52,0.00,,---,0.00,VWS V14.01,2013-01-23 03:30:00,
2013-01-22 22:32:00,67.3,49.1,30.18,NNE,25,2.7,2.7,52,0.00,,---,0.00,VWS V14.01,2013-01-23 03:32:00,
2013-01-22 22:34:00,67.3,49.1,30.18,NNW,338,2.7,4.0,52,0.00,,---,0.00,VWS V14.01,2013-01-23 03:34:00,
2013-01-22 22:35:00,67.3,49.1,30.18,NNE,25,5.4,5.4,52,0.00,,---,0.00,VWS V14.01,2013-01-23 03:35:00,
2013-01-22 22:37:00,67.3,49.1,30.18,NNE,15,6.3,6.3,52,0.00,,---,0.00,VWS V14.01,2013-01-23 03:37:00,
2013-01-22 22:39:00,67.3,49.1,30.18,North,357,6.3,6.3,52,0.00,,---,0.00,VWS V14.01,2013-01-23 03:39:00,
2013-01-22 22:40:00,67.3,49.1,30.18,NNE,15,3.1,6.3,52,0.00,,---,0.00,VWS V14.01,2013-01-23 03:40:00,
2013-01-22 22:41:00,67.3,49.1,30.18,NNE,15,3.1,3.1,52,0.00,,---,0.00,VWS V14.01,2013-01-23 03:41:00,
2013-01-22 22:42:00,67.3,49.1,30.18,WNW,291,5.4,5.4,52,0.00,,---,0.00,VWS V14.01,2013-01-23 03:42:00,
2013-01-22 22:44:00,67.3,49.1,30.18,NNE,24,4.9,4.9,52,0.00,,---,0.00,VWS V14.01,2013-01-23 03:44:00,
2013-01-22 22:46:00,67.3,49.1,30.18,WNW,292,5.8,5.8,52,0.00,,---,0.00,VWS V14.01,2013-01-23 03:46:00,
2013-01-22 22:47:00,67.3,49.1,30.18,North,353,6.3,6.3,52,0.00,,---,0.00,VWS V14.01,2013-01-23 03:47:00,
2013-01-22 22:49:00,67.3,49.1,30.18,WNW,298,5.8,5.8,52,0.00,,---,0.00,VWS V14.01,2013-01-23 03:49:00,
2013-01-22 22:51:00,67.3,49.1,30.18,NW,320,5.8,5.8,52,0.00,,---,0.00,VWS V14.01,2013-01-23 03:51:00,
2013-01-22 22:52:00,67.3,49.1,30.18,NNE,20,0.0,5.8,52,0.00,,---,0.00,VWS V14.01,2013-01-23 03:52:00,
2013-01-22 22:54:00,67.3,49.1,30.18,WNW,296,6.3,6.3,52,0.00,,---,0.00,VWS V14.01,2013-01-23 03:54:00,
2013-01-22 22:56:00,67.3,49.1,30.18,NW,319,3.6,3.6,52,0.00,,---,0.00,VWS V14.01,2013-01-23 03:56:00,
2013-01-22 22:57:00,67.3,49.1,30.18,North,353,3.1,3.1,52,0.00,,---,0.00,VWS V14.01,2013-01-23 03:57:00,
2013-01-22 22:58:00,67.3,49.1,30.18,NNW,340,4.0,4.9,52,0.00,,---,0.00,VWS V14.01,2013-01-23 03:58:00,
2013-01-22 22:59:00,67.3,49.1,30.18,NE,36,5.4,5.4,52,0.00,,---,0.00,VWS V14.01,2013-01-23 03:59:00,
2013-01-22 23:02:00,67.3,49.1,30.18,NE,42,6.3,10.1,52,0.00,,---,0.00,VWS V14.01,2013-01-23 04:02:00,
2013-01-22 23:03:00,67.1,48.9,30.18,NNW,341,6.3,6.3,52,0.00,,---,0.00,VWS V14.01,2013-01-23 04:03:00,
2013-01-22 23:04:00,67.1,48.9,30.18,NNW,341,6.3,6.3,52,0.00,,---,0.00,VWS V14.01,2013-01-23 04:04:00,
2013-01-22 23:07:00,67.1,48.9,30.18,North,353,4.0,4.0,52,0.00,,---,0.00,VWS V14.01,2013-01-23 04:07:00,
2013-01-22 23:08:00,67.1,48.9,30.18,NE,45,3.6,3.6,52,0.00,,---,0.00,VWS V14.01,2013-01-23 04:08:00,
2013-01-22 23:09:00,67.1,48.9,30.18,WNW,286,4.0,4.0,52,0.00,,---,0.00,VWS V14.01,2013-01-23 04:09:00,
2013-01-22 23:12:00,66.9,48.7,30.18,East,83,3.1,3.6,52,0.00,,---,0.00,VWS V14.01,2013-01-23 04:12:00,
2013-01-22 23:14:00,66.9,48.7,30.18,NW,312,4.9,4.9,52,0.00,,---,0.00,VWS V14.01,2013-01-23 04:14:00,
2013-01-22 23:17:00,66.9,48.7,30.18,NNW,335,4.9,4.9,52,0.00,,---,0.00,VWS V14.01,2013-01-23 04:17:00,
2013-01-22 23:19:00,66.9,48.7,30.18,NW,321,3.6,3.6,52,0.00,,---,0.00,VWS V14.01,2013-01-23 04:19:00,
2013-01-22 23:22:00,66.9,48.7,30.18,NW,304,3.6,4.0,52,0.00,,---,0.00,VWS V14.01,2013-01-23 04:22:00,
2013-01-22 23:24:00,66.9,48.7,30.18,North,353,3.1,6.3,52,0.00,,---,0.00,VWS V14.01,2013-01-23 04:24:00,
2013-01-22 23:27:00,66.9,48.2,30.18,North,353,8.7,8.7,51,0.00,,---,0.00,VWS V14.01,2013-01-23 04:27:00,
2013-01-22 23:28:00,66.9,48.2,30.18,NW,313,3.1,8.7,51,0.00,,---,0.00,VWS V14.01,2013-01-23 04:28:00,
2013-01-22 23:29:00,66.9,48.2,30.18,East,97,3.1,3.1,51,0.00,,---,0.00,VWS V14.01,2013-01-23 04:29:00,
2013-01-22 23:32:00,66.9,48.2,30.18,North,5,3.1,3.1,51,0.00,,---,0.00,VWS V14.01,2013-01-23 04:32:00,
2013-01-22 23:33:00,66.9,48.2,30.18,NNE,25,2.7,3.1,51,0.00,,---,0.00,VWS V14.01,2013-01-23 04:33:00,
2013-01-22 23:34:00,66.9,48.7,30.18,West,269,2.7,5.8,52,0.00,,---,0.00,VWS V14.01,2013-01-23 04:34:00,
2013-01-22 23:35:00,66.9,48.7,30.18,West,269,2.7,2.7,52,0.00,,---,0.00,VWS V14.01,2013-01-23 04:35:00,
2013-01-22 23:37:00,66.9,48.7,30.18,North,0,2.7,3.6,52,0.00,,---,0.00,VWS V14.01,2013-01-23 04:37:00,
2013-01-22 23:38:00,66.9,48.7,30.18,NE,41,3.1,3.1,52,0.00,,---,0.00,VWS V14.01,2013-01-23 04:38:00,
2013-01-22 23:40:00,66.9,48.7,30.18,NW,313,5.4,5.4,52,0.00,,---,0.00,VWS V14.01,2013-01-23 04:40:00,
2013-01-22 23:42:00,66.9,48.7,30.18,North,2,4.0,4.0,52,0.00,,---,0.00,VWS V14.01,2013-01-23 04:42:00,
2013-01-22 23:43:00,66.9,48.7,30.18,NE,38,5.4,5.4,52,0.00,,---,0.00,VWS V14.01,2013-01-23 04:43:00,
2013-01-22 23:45:00,66.9,48.7,30.18,WNW,282,5.4,5.4,52,0.00,,---,0.00,VWS V14.01,2013-01-23 04:45:00,
2013-01-22 23:47:00,67.1,48.9,30.18,NW,310,5.4,5.4,52,0.00,,---,0.00,VWS V14.01,2013-01-23 04:47:00,
2013-01-22 23:48:00,67.1,48.9,30.18,North,10,3.1,3.1,52,0.00,,---,0.00,VWS V14.01,2013-01-23 04:48:00,
2013-01-22 23:50:00,66.9,48.7,30.18,NNE,15,3.6,3.6,52,0.00,,---,0.00,VWS V14.01,2013-01-23 04:50:00,
2013-01-22 23:52:00,66.9,48.7,30.18,North,357,0.0,5.4,52,0.00,,---,0.00,VWS V14.01,2013-01-23 04:52:00,
2013-01-22 23:53:00,66.9,48.7,30.18,NNW,327,3.6,3.6,52,0.00,,---,0.00,VWS V14.01,2013-01-23 04:53:00,
2013-01-22 23:55:00,66.9,48.7,30.18,West,267,2.7,5.8,52,0.00,,---,0.00,VWS V14.01,2013-01-23 04:55:00,
2013-01-22 23:57:00,66.9,48.7,30.18,NNE,13,8.3,8.3,52,0.00,,---,0.00,VWS V14.01,2013-01-23 04:57:00,
2013-01-22 23:58:00,66.9,48.7,30.18,North,5,6.3,8.3,52,0.00,,---,0.00,VWS V14.01,2013-01-23 04:58:00,